GFSFLT1_sfc_dewp_000.txt.gz
Dewpoint
32 31 32 33 33 35 32 29 32 38 39 37 37 39 39 40 46 48 47 45 44 41 45 44 42 42 41 41 38 39 39 38
33 32 33 32 31 31 33 33 33 35 35 35 34 34 37 38 40 46 46 45 43 40 41 44 43 41 41 39 38 38 37 38
32 32 31 30 30 30 31 31 33 34 34 35 34 34 35 36 37 39 45 44 41 39 39 41 41 41 39 39 40 39 39 39
31 33 32 32 31 32 32 31 32 35 36 34 35 36 36 36 36 37 40 42 42 41 39 40 39 39 38 38 37 37 36 38
28 29 33 35 34 34 33 34 34 35 37 35 33 32 32 33 34 35 38 41 41 40 40 40 39 40 39 40 39 39 39 36
29 30 30 31 34 36 37 37 36 37 38 38 37 34 35 35 36 34 35 38 40 41 40 40 41 41 37 34 34 32 36 35
32 33 34 36 38 38 40 39 39 39 40 39 39 37 36 36 36 37 39 37 37 39 38 37 36 35 34 33 32 29 30 31
31 35 37 38 38 39 39 39 40 41 41 41 41 40 39 37 36 37 38 35 35 34 34 35 34 33 34 34 34 34 32 30
34 37 38 39 39 39 39 38 37 37 39 39 40 40 41 41 38 38 36 36 35 34 34 35 36 37 36 36 37 37 35 32
37 38 39 39 38 39 39 39 38 38 38 37 35 35 36 33 32 34 34 33 33 35 38 40 41 42 41 37 35 33 34 33
36 37 39 39 39 40 41 40 39 39 33 34 31 31 32 32 32 31 32 34 38 40 41 41 42 39 37 35 34 32 32 33
37 38 39 39 39 40 40 39 39 32 29 33 32 29 30 29 30 31 31 33 35 36 37 36 36 35 34 32 31 31 31 31
38 39 39 39 39 39 39 40 34 30 31 32 31 29 27 28 29 30 31 30 30 30 31 31 31 31 31 30 30 28 28 27
39 39 39 40 39 39 40 40 32 32 31 29 27 26 25 28 28 28 29 28 28 29 28 29 31 31 29 29 28 27 26 25
39 39 39 40 39 39 40 33 34 34 32 26 25 26 27 29 28 29 28 28 28 28 29 31 31 30 27 26 25 26 26 25
39 39 39 40 39 40 35 36 36 35 30 30 32 33 32 31 29 30 32 31 30 30 29 28 27 26 23 28 27 25 25 25
38 40 40 39 39 39 36 36 37 37 37 39 38 36 36 36 36 36 34 31 28 25 25 25 24 23 32 30 29 26 25 24
38 40 40 39 38 36 37 37 39 39 39 39 40 40 38 37 36 34 28 25 23 22 22 22 23 25 28 28 28 24 25 25
39 40 38 37 37 37 37 38 39 38 38 38 37 37 35 31 27 25 22 21 20 20 21 23 23 24 28 27 28 26 25 25

GFSFLT1_sfc_dewp_003.txt.gz
Dewpoint
33 32 32 34 37 34 31 38 39 40 40 39 37 38 41 42 42 47 48 48 47 44 45 46 43 42 41 41 39 39 38 38
31 32 32 32 34 33 29 29 31 36 36 36 35 35 36 38 39 41 47 47 46 43 42 45 44 41 41 41 39 37 37 38
30 31 30 29 30 31 31 32 32 33 34 34 34 34 34 35 37 38 44 47 46 43 41 42 44 42 41 41 39 39 38 39
31 30 29 29 29 30 30 30 31 33 35 34 34 35 36 35 35 36 37 43 46 44 41 39 41 43 41 39 39 38 36 38
29 31 32 32 32 33 33 33 33 34 35 35 34 33 32 34 35 35 35 40 40 43 42 39 39 40 39 38 38 37 36 33
28 30 30 31 33 34 37 38 38 38 38 38 39 38 38 38 38 37 36 36 41 41 42 40 39 41 40 39 37 34 33 33
32 34 36 38 39 39 39 39 39 39 39 40 40 39 39 39 39 38 38 38 38 40 40 40 37 35 34 31 30 29 31 31
33 35 37 38 38 38 38 38 38 38 39 39 38 38 39 39 39 39 38 35 35 34 35 33 34 35 36 36 36 36 34 34
36 37 38 38 39 39 39 39 38 38 39 36 36 36 38 39 39 37 37 34 34 36 38 39 40 40 41 41 41 40 40 38
37 38 38 37 38 39 39 39 39 39 37 33 34 34 34 35 33 34 34 34 36 39 40 41 41 40 41 42 40 38 36 35
36 37 38 38 38 39 40 39 39 39 30 31 33 33 32 32 33 33 33 36 39 40 40 40 40 41 40 40 37 35 34 34
36 37 38 38 39 39 39 39 39 35 31 32 33 34 31 30 31 32 34 36 36 35 34 35 38 38 37 36 34 32 32 31
38 39 39 39 39 39 38 39 38 32 34 33 33 33 30 28 30 30 32 30 30 30 30 31 32 32 31 30 30 29 28 27
39 39 39 39 40 39 39 40 34 34 34 32 29 28 26 27 28 30 29 28 27 28 27 28 29 30 29 28 28 27 27 27
39 39 39 39 40 39 39 36 36 35 34 29 25 24 26 28 28 30 32 32 29 29 29 30 30 28 26 26 26 25 25 25
39 39 38 39 40 39 38 36 36 37 36 31 32 33 32 32 36 37 35 34 32 31 30 27 26 25 24 27 25 25 24 24
39 37 38 40 39 38 36 36 37 38 37 38 39 39 39 39 38 38 37 37 35 28 25 24 24 23 32 29 29 26 25 24
37 37 39 39 37 36 36 36 38 37 37 38 39 38 39 38 38 37 36 29 25 23 23 24 25 25 28 28 28 26 25 24
35 39 39 36 36 35 36 36 36 37 34 29 29 31 30 29 27 24 23 22 21 21 23 25 25 25 27 27 27 24 24 24

GFSFLT1_sfc_dewp_006.txt.gz
Dewpoint
32 32 32 33 38 41 39 43 46 44 42 40 39 39 40 43 43 44 48 49 48 47 46 46 45 43 42 40 39 40 39 37
32 32 34 35 36 33 32 34 35 37 37 37 36 36 36 38 39 41 44 47 48 47 45 45 46 43 41 41 40 39 38 39
30 30 30 31 33 33 31 30 31 32 34 34 35 34 35 35 37 38 39 42 45 46 45 43 43 44 41 41 40 38 38 39
30 30 29 29 30 30 30 30 31 33 34 34 34 35 35 35 35 35 36 39 41 45 45 44 42 43 42 41 40 39 37 38
31 31 30 34 31 33 34 35 36 36 38 37 37 35 35 37 37 37 37 38 39 41 45 44 42 41 42 41 40 39 37 35
28 29 33 38 36 38 39 39 39 39 38 39 39 38 39 40 40 39 40 40 39 39 40 42 42 41 40 40 38 37 34 33
33 36 38 38 38 38 39 39 39 39 39 39 38 37 37 37 37 39 40 40 38 38 39 40 38 37 34 34 35 33 32 33
32 37 37 37 38 39 39 39 38 39 39 35 34 34 35 35 35 37 38 38 34 35 35 36 37 38 39 40 39 38 38 38
37 37 37 37 37 38 39 39 38 39 38 33 34 35 35 35 35 36 36 34 35 38 39 40 39 39 40 40 40 40 41 40
35 37 38 38 38 39 39 39 39 40 38 33 35 35 35 35 34 34 34 34 38 39 39 39 39 40 41 40 39 38 37 37
37 37 38 39 39 39 40 39 39 40 35 34 35 35 35 35 33 33 33 35 38 38 38 37 37 36 38 40 40 40 38 37
35 37 39 39 39 39 40 39 39 40 33 35 35 35 34 33 32 32 33 36 36 33 33 34 35 37 37 37 36 35 33 32
36 38 39 39 39 40 40 39 40 35 35 35 35 33 29 29 30 31 32 30 29 29 30 30 31 30 31 31 30 29 28 27
38 39 39 39 39 40 40 40 37 36 36 35 30 27 26 28 28 31 32 32 31 30 29 29 30 31 30 28 27 27 26 27
38 39 39 39 39 40 40 39 37 37 37 34 32 31 29 32 35 35 35 34 33 32 33 32 32 28 26 26 26 26 25 24
39 39 39 38 39 40 39 37 37 38 37 37 35 37 37 36 36 37 36 36 36 37 36 30 27 25 23 26 25 24 24 24
39 37 37 39 40 38 36 36 37 38 37 37 39 39 39 37 37 37 37 36 36 37 32 24 24 23 30 29 29 27 26 24
33 32 34 37 37 36 35 36 37 37 36 31 31 33 35 35 36 36 34 30 25 23 23 24 25 25 28 28 27 26 25 25
35 33 35 36 35 35 34 32 31 29 29 30 31 30 28 26 24 23 23 22 21 21 23 25 24 22 25 25 25 24 23 23

GFSFLT1_sfc_dewp_009.txt.gz
Dewpoint
34 35 34 37 44 47 49 49 51 51 49 48 46 45 45 46 46 46 49 49 53 53 52 53 51 49 49 48 47 45 42 41
33 36 38 39 43 45 45 45 46 45 42 41 40 41 40 41 40 43 45 45 48 50 49 50 51 49 48 48 47 46 43 43
33 35 38 39 41 41 37 36 37 37 37 39 40 40 40 40 42 44 44 44 44 44 48 47 48 47 49 49 48 44 43 44
31 33 35 38 37 38 36 37 39 41 42 40 41 42 41 40 38 39 40 44 44 44 45 46 47 47 46 49 49 46 43 43
32 34 36 39 40 43 42 42 41 41 43 41 41 38 36 38 40 39 41 44 44 43 43 44 46 46 46 47 46 47 45 42
35 39 39 40 42 43 43 42 41 42 41 40 39 40 39 39 39 39 40 41 42 42 42 43 44 44 45 46 46 45 43 42
36 40 40 40 42 43 44 42 41 42 42 40 41 41 40 39 40 39 38 39 39 40 40 42 41 41 41 40 40 40 39 39
38 38 38 40 40 42 42 41 40 42 43 39 39 41 41 40 39 38 38 38 38 39 40 41 41 42 42 42 42 42 41 40
39 38 39 39 40 41 42 41 40 41 43 40 39 40 39 38 38 38 38 37 37 41 41 41 41 41 41 42 42 40 39 39
38 39 40 40 41 42 43 42 40 41 43 40 40 40 39 38 39 37 36 37 39 41 42 41 41 41 41 40 41 39 38 37
38 38 40 41 42 43 44 43 40 41 42 38 38 38 38 37 34 35 36 38 41 41 38 36 35 36 35 37 38 38 38 38
38 39 40 41 42 41 42 42 41 41 37 38 39 38 34 31 33 35 36 38 36 33 32 33 34 34 34 35 35 34 33 32
39 40 40 41 40 40 41 42 41 38 38 38 37 33 30 31 33 33 35 33 32 32 32 35 35 34 33 31 30 29 27 26
40 39 40 39 38 40 41 41 38 37 38 38 34 33 31 37 37 38 38 37 36 37 37 38 37 32 29 28 27 27 27 27
40 40 36 36 38 40 39 38 38 37 38 37 36 36 36 37 38 38 38 37 36 36 36 36 37 33 27 25 25 26 27 26
39 35 34 35 37 38 37 37 37 39 38 38 38 39 38 38 35 34 35 35 34 35 36 34 27 25 22 28 26 26 26 26
35 34 33 33 37 36 36 36 37 39 38 32 31 31 31 32 33 34 34 31 27 25 24 24 26 23 30 30 29 26 25 23
32 29 32 36 36 35 34 35 36 35 31 29 30 32 28 27 25 24 24 24 24 23 24 25 25 24 24 25 25 22 22 22
29 30 35 37 35 33 33 32 31 30 30 31 32 28 25 25 24 23 22 22 22 22 24 23 21 19 23 24 24 23 24 23

GFSFLT1_sfc_dewp_012.txt.gz
Dewpoint
40 38 36 37 46 51 54 53 51 52 50 50 45 45 45 45 43 42 45 45 48 50 49 51 52 50 49 48 49 47 46 44
35 39 41 41 47 48 47 48 45 45 42 40 40 41 40 41 42 45 47 46 46 48 46 47 48 48 49 51 49 49 47 46
35 39 42 44 44 42 40 39 40 40 39 41 43 44 43 43 43 44 43 44 43 42 45 45 45 45 47 49 50 49 48 47
33 36 40 42 43 43 40 42 43 44 43 41 41 41 41 39 39 38 39 41 40 41 42 43 45 44 43 45 47 47 45 47
34 37 39 43 45 45 43 43 41 42 44 41 43 39 38 40 40 39 39 41 40 39 40 43 44 43 44 44 42 46 46 44
38 39 40 42 44 45 45 43 42 42 41 43 41 42 41 40 40 41 39 37 37 37 39 43 43 43 44 46 47 46 45 45
39 40 40 41 44 45 45 42 41 43 43 42 43 43 42 40 38 37 35 35 35 37 38 42 44 43 44 43 44 44 43 43
38 38 38 40 42 44 43 42 40 41 42 41 40 41 41 40 38 36 36 34 35 38 41 42 42 44 43 42 42 41 40 39
38 38 39 40 42 43 44 41 39 38 40 39 40 42 41 38 38 36 36 36 37 40 42 41 41 41 40 41 43 42 39 39
37 37 39 41 42 43 44 43 41 41 42 43 42 42 40 38 37 37 36 38 37 41 41 41 39 38 38 38 39 39 39 38
38 38 39 40 42 44 44 43 41 42 42 41 40 40 38 36 36 36 38 39 40 40 39 36 36 38 39 39 38 36 36 37
38 39 39 41 42 41 41 42 41 39 39 39 39 38 35 35 36 36 37 37 34 33 33 35 37 39 39 38 36 33 31 30
38 39 40 41 39 38 37 38 38 37 37 37 36 36 35 35 36 36 37 36 36 35 37 39 40 39 37 34 33 30 27 26
38 39 39 38 36 36 36 37 37 37 35 34 34 36 36 36 36 36 37 36 36 38 38 38 38 37 35 32 31 29 27 26
39 39 38 35 33 33 36 37 37 34 35 34 34 37 37 37 35 34 34 34 33 33 33 32 31 27 25 25 24 26 26 24
38 37 33 30 30 36 36 34 34 35 35 34 34 34 32 31 31 30 30 30 26 25 25 25 25 24 22 28 26 25 25 24
35 33 27 28 32 36 32 30 32 36 34 33 31 31 30 29 29 28 26 23 23 24 24 24 25 20 26 25 25 23 22 21
33 28 26 31 35 32 29 30 32 33 32 30 29 30 29 27 24 20 21 23 24 24 24 24 24 24 24 24 24 21 21 21
27 27 28 33 34 29 31 29 29 30 30 29 29 27 26 23 20 20 23 23 23 23 24 23 23 20 23 23 23 23 23 23

GFSFLT1_sfc_dewp_015.txt.gz
Dewpoint
43 40 41 38 43 47 50 55 53 51 49 49 44 44 44 44 43 43 46 47 48 49 48 51 51 48 48 49 53 50 50 49
39 41 42 45 49 50 51 51 48 45 42 41 40 41 41 42 43 45 47 45 45 46 44 45 47 45 48 51 50 51 49 51
38 42 44 45 45 44 43 42 42 41 40 42 45 45 43 43 44 44 43 44 43 42 44 42 43 42 48 49 50 48 48 50
35 39 42 45 45 43 42 42 43 44 44 41 41 42 42 40 40 41 41 43 42 42 41 42 45 45 44 48 47 47 44 46
35 38 42 45 46 45 43 42 42 42 45 42 45 41 40 42 42 41 41 41 39 37 38 42 45 45 46 46 42 48 47 44
38 39 41 42 45 46 45 42 42 43 44 44 43 43 42 42 41 41 41 39 39 36 38 43 44 43 45 46 45 45 43 43
38 39 39 41 44 46 46 43 41 42 44 44 44 43 42 40 40 39 37 38 37 38 37 42 44 43 43 43 45 44 42 42
37 38 38 40 42 43 44 42 42 41 42 42 43 41 42 41 39 38 37 35 36 39 40 42 40 42 44 44 43 42 40 39
38 38 40 40 41 43 44 43 42 42 43 43 43 42 40 39 39 37 36 36 38 39 39 42 42 43 42 41 42 41 39 40
36 38 39 40 41 42 44 43 40 40 42 43 43 41 40 39 38 37 37 38 36 40 42 42 41 40 40 41 40 40 40 39
37 38 40 40 41 43 43 42 40 40 40 40 39 39 39 37 37 36 36 37 37 36 38 39 39 39 39 39 38 38 38 39
37 37 39 39 41 40 39 38 38 37 37 37 38 37 36 35 35 36 37 37 37 36 36 37 39 38 38 39 39 38 37 35
36 37 39 39 39 38 37 36 34 35 35 34 33 33 34 34 35 36 36 37 36 37 39 39 37 37 37 38 37 34 33 33
38 39 38 38 37 35 32 34 35 34 32 30 31 32 33 35 36 35 33 32 32 32 33 35 34 33 28 26 25 27 26 27
38 37 37 36 33 29 32 33 35 32 29 30 31 32 32 33 32 31 30 28 26 24 23 24 25 23 22 23 24 24 24 23
37 37 34 30 27 29 31 33 31 30 30 30 31 31 31 31 31 28 27 25 22 21 22 23 24 22 20 26 24 23 23 22
37 30 27 25 26 28 31 30 30 30 29 29 29 30 31 31 29 27 23 22 21 23 23 23 23 18 27 25 24 22 20 20
35 28 27 27 27 29 30 28 29 28 28 27 28 31 31 28 25 20 20 22 23 23 23 22 22 23 24 24 25 22 21 21
32 29 27 25 26 27 30 28 28 27 26 27 30 30 29 25 23 20 22 22 23 23 23 23 24 22 26 25 24 22 22 22

GFSFLT1_sfc_dewp_018.txt.gz
Dewpoint
43 43 44 44 51 51 53 57 58 58 54 53 52 51 51 52 50 51 51 50 52 52 51 53 54 50 50 50 51 51 51 50
42 45 48 51 53 52 53 52 52 50 48 48 49 50 49 50 49 51 50 50 49 49 48 48 48 47 48 48 48 46 47 49
43 45 47 49 48 48 47 46 48 47 47 48 49 49 49 48 50 49 49 49 48 45 48 47 46 46 46 46 47 46 46 47
39 43 47 50 49 49 45 46 47 48 49 46 47 48 48 46 47 46 47 48 46 45 45 45 46 46 45 45 44 44 44 45
38 43 46 48 49 50 47 46 46 46 49 48 49 46 44 46 47 46 45 46 45 41 42 44 44 45 45 45 44 46 45 43
39 41 43 45 50 50 50 48 45 47 48 49 48 47 47 46 45 45 44 44 43 41 41 43 43 43 44 46 46 44 43 41
39 41 43 45 49 50 50 47 45 46 46 46 47 47 46 44 44 42 41 39 39 41 41 42 43 45 44 44 43 42 41 40
40 39 40 43 46 47 47 46 44 45 48 46 48 46 46 43 42 40 39 38 39 39 42 43 43 44 42 42 41 40 39 39
40 40 42 43 45 46 46 45 43 42 46 46 47 45 43 42 41 39 39 39 39 41 41 43 42 42 41 41 42 41 40 41
39 40 43 43 44 46 46 44 42 43 45 45 44 44 43 41 40 40 40 40 37 38 39 41 41 41 40 40 39 39 39 40
39 39 42 43 43 45 46 44 41 41 40 41 39 40 40 40 39 39 39 38 38 37 38 39 40 40 39 39 38 38 39 40
38 39 41 42 44 43 42 39 37 37 38 39 39 39 38 39 39 38 38 38 36 37 37 39 38 38 38 38 39 37 37 35
39 40 41 41 40 41 38 37 37 37 37 36 35 36 36 38 37 37 37 36 36 35 34 33 34 36 36 37 35 35 34 33
38 39 39 38 38 37 34 35 35 35 32 31 32 34 35 35 35 36 36 34 33 31 28 27 27 28 26 27 27 28 26 25
38 37 37 36 33 32 31 33 37 34 31 30 31 35 34 34 34 34 34 32 29 27 27 27 28 25 24 26 25 26 25 23
37 37 35 31 31 30 31 33 35 34 32 30 33 34 33 34 35 34 33 31 27 27 26 27 27 25 22 26 25 24 24 23
37 35 31 29 29 29 29 31 34 33 32 31 31 33 33 34 34 34 32 28 27 27 27 26 27 20 27 26 26 24 23 22
35 32 32 29 26 27 26 28 31 34 33 31 32 34 32 34 32 29 27 27 27 27 27 26 26 27 28 27 26 23 22 21
34 32 27 26 25 25 26 24 25 26 28 28 31 33 32 31 30 29 28 27 27 26 26 26 26 24 30 28 27 23 22 22

GFSFLT1_sfc_dewp_021.txt.gz
Dewpoint
44 47 49 50 52 51 51 54 55 55 51 48 48 48 48 48 48 48 47 48 47 46 46 46 46 46 46 46 45 45 46 47
43 45 47 49 45 46 47 48 46 46 45 45 45 45 45 45 46 45 48 46 46 45 46 45 45 44 44 44 45 45 43 46
44 46 47 46 44 44 44 44 44 45 45 45 46 45 46 46 46 46 47 45 44 41 43 43 43 44 44 44 43 42 43 44
43 44 45 44 44 43 43 44 44 45 45 45 45 45 45 44 44 44 43 43 41 41 41 42 43 43 43 43 43 43 44 44
43 44 44 45 45 45 43 43 43 46 45 44 44 44 43 44 44 43 41 41 40 39 40 41 42 42 42 43 45 43 42 40
41 43 44 45 45 45 44 44 44 44 45 45 44 43 44 44 43 41 39 39 40 39 39 41 42 44 44 43 43 42 41 41
40 42 44 44 45 45 44 44 43 45 44 45 45 43 42 41 40 39 39 39 39 39 41 42 43 42 42 42 41 39 39 39
39 39 42 44 42 43 43 43 42 44 45 45 43 42 41 39 38 37 37 38 37 38 39 42 41 41 41 40 40 40 40 39
37 38 38 41 43 43 43 42 41 43 43 42 42 41 41 39 37 37 37 38 38 37 38 40 41 41 40 39 39 39 39 38
37 40 41 40 41 42 42 41 40 41 41 40 39 39 39 37 36 37 38 37 36 36 37 38 40 40 39 38 38 37 37 37
39 40 41 42 41 42 41 39 38 37 36 38 37 36 36 36 38 36 36 36 36 35 36 38 39 39 38 37 37 37 37 37
40 40 40 40 40 39 39 35 35 35 35 35 33 33 34 37 37 36 35 35 35 35 36 35 36 36 36 36 36 36 36 36
39 39 39 38 38 36 35 34 34 34 33 32 31 32 33 35 35 35 34 34 33 33 32 29 29 28 30 31 31 28 28 26
38 37 37 36 34 32 32 32 35 33 31 30 29 31 33 33 32 34 33 32 31 28 27 27 28 29 27 27 28 27 26 26
37 37 37 34 33 31 30 31 34 33 31 30 30 31 33 32 32 32 32 31 28 25 26 27 28 27 26 26 25 25 25 24
37 36 36 33 30 30 29 30 32 34 32 32 32 34 34 32 34 36 34 30 28 25 25 27 27 25 23 25 25 24 24 23
36 35 32 31 28 26 27 28 31 34 33 33 34 36 35 36 36 35 35 29 24 24 25 26 26 23 28 27 25 23 23 22
35 34 33 29 26 26 26 26 27 27 26 31 33 35 36 37 37 37 33 25 24 25 25 26 26 26 29 27 27 24 23 21
36 35 33 25 25 25 25 24 24 25 27 32 34 35 35 36 37 35 30 26 24 25 26 26 26 25 30 30 30 26 24 23

GFSFLT1_sfc_dewp_024.txt.gz
Dewpoint
47 48 49 50 54 58 58 57 57 56 51 48 50 47 47 48 47 47 46 46 46 45 45 45 45 44 44 44 43 44 44 42
45 47 47 45 45 46 49 49 47 47 48 47 45 45 45 46 45 45 43 42 42 41 42 42 43 43 43 43 44 42 40 42
44 46 47 47 45 46 45 46 44 44 45 45 45 45 45 45 45 42 42 41 41 38 41 41 41 41 41 41 41 41 42 44
43 43 46 48 45 45 43 43 43 44 45 44 44 44 44 44 43 41 40 41 40 40 40 41 42 42 42 42 43 42 42 42
43 43 43 43 43 43 43 43 44 44 44 44 43 42 42 43 42 40 39 40 40 39 42 43 43 43 42 43 43 43 42 40
43 43 43 44 43 43 43 44 44 45 45 45 44 43 43 42 40 38 38 39 39 40 41 42 42 41 41 40 40 39 40 38
43 44 45 44 44 44 43 42 44 45 44 43 42 41 40 38 37 37 37 38 39 39 39 42 41 40 40 39 38 38 38 38
42 43 43 44 43 43 43 42 43 44 44 42 41 40 38 36 36 36 35 37 37 37 38 39 40 40 40 40 39 38 37 36
40 40 42 42 42 42 42 41 41 42 42 40 40 40 39 37 36 36 38 37 36 36 37 39 40 40 39 39 38 37 36 36
40 40 40 41 42 41 39 39 40 39 40 39 37 39 38 37 36 37 37 36 36 35 35 37 39 39 38 38 36 36 36 35
40 40 41 41 40 40 40 38 36 36 36 36 35 34 36 37 37 36 36 35 35 34 33 35 36 37 37 36 35 35 35 35
40 40 39 38 38 35 35 34 34 34 34 34 33 32 33 37 36 36 36 35 35 34 34 34 29 30 31 31 32 32 30 27
38 38 37 35 34 32 34 33 33 34 33 32 31 32 32 36 36 36 35 34 34 33 33 27 27 27 27 27 28 27 26 25
37 37 37 35 33 32 30 31 31 34 33 31 29 30 31 33 34 34 35 35 33 35 28 27 27 27 27 27 26 25 24 24
36 36 36 35 32 30 29 29 31 33 33 31 32 32 33 33 33 34 36 38 37 33 27 27 28 27 25 25 24 24 24 23
36 35 34 32 30 28 27 29 31 32 29 32 34 35 34 32 33 35 38 37 36 34 29 27 27 26 23 25 24 24 23 23
35 34 33 33 31 26 26 26 27 28 28 32 34 35 35 36 37 37 36 37 36 28 28 27 26 23 29 27 27 24 24 22
35 35 35 33 25 25 23 24 25 25 31 33 35 35 35 35 36 37 36 34 33 32 27 26 26 25 29 30 31 27 25 24
33 31 27 24 23 22 23 22 23 29 33 34 35 36 35 35 35 35 35 34 33 27 27 26 25 25 29 30 29 26 25 25

GFSFLT1_sfc_dewp_027.txt.gz
Dewpoint
46 48 53 57 56 56 57 58 58 54 51 48 47 46 45 46 44 42 42 42 42 41 41 42 42 41 41 41 41 42 41 41
46 46 47 49 50 49 51 51 49 51 50 49 46 47 45 44 41 42 41 41 41 41 41 41 42 41 41 42 41 41 41 43
44 46 47 48 48 50 45 45 44 44 45 46 45 45 44 43 41 41 41 41 39 40 41 42 42 42 42 43 42 42 42 42
44 46 48 48 44 43 42 43 43 44 45 44 44 44 44 42 40 39 39 40 40 41 42 42 42 42 41 41 41 40 39 41
45 46 45 43 43 43 43 43 43 44 44 43 42 41 42 42 39 38 38 39 40 40 41 42 41 41 40 40 40 39 38 37
43 43 42 43 43 43 43 44 44 44 44 44 44 42 41 40 39 37 37 38 39 38 40 41 40 40 39 38 38 37 38 38
43 43 44 44 44 43 42 44 44 44 43 43 42 41 39 37 36 36 36 37 38 37 38 41 39 39 39 38 38 37 36 36
43 43 43 43 43 42 42 43 43 43 42 41 40 39 38 36 36 36 35 36 36 35 36 39 39 39 39 39 37 36 35 34
42 42 41 41 42 41 41 42 42 42 41 40 40 39 38 37 36 36 36 37 36 36 34 39 39 39 39 38 37 36 35 34
39 40 40 40 39 39 39 39 40 40 39 38 39 40 39 38 37 36 37 37 36 36 34 36 37 39 38 37 36 35 34 34
39 39 39 40 40 38 38 38 37 37 36 36 35 35 36 37 37 36 37 36 36 35 34 34 36 36 36 35 34 34 33 32
39 38 37 37 35 33 34 35 34 34 34 34 34 34 33 35 36 37 36 36 35 35 35 35 32 30 30 30 29 29 27 25
37 37 36 34 33 31 34 32 32 34 34 34 32 32 31 32 35 36 36 35 36 34 35 36 35 29 28 27 27 26 25 24
36 36 36 35 32 31 30 30 30 32 33 31 31 32 33 33 33 34 34 35 35 36 36 36 31 29 28 28 27 25 23 24
35 35 34 33 30 30 28 28 31 30 29 31 32 33 33 33 32 33 34 35 36 35 36 31 31 30 27 25 23 23 24 24
35 34 33 32 32 27 26 26 27 28 29 31 33 34 34 35 35 36 36 36 36 37 35 32 30 27 23 24 25 25 24 24
34 34 34 34 26 24 24 23 25 26 29 32 34 34 34 34 34 35 36 37 33 34 34 31 25 23 29 29 30 27 25 24
34 34 33 25 23 23 22 23 24 25 32 33 34 35 34 34 35 34 34 33 33 32 30 26 25 26 29 30 29 26 26 25
31 25 24 23 22 21 23 22 23 31 31 32 33 33 33 34 34 33 34 34 30 28 26 25 25 25 27 25 27 24 22 22

GFSFLT1_sfc_dewp_030.txt.gz
Dewpoint
46 53 56 57 58 59 59 56 55 54 53 51 47 45 43 42 42 42 41 42 43 42 42 42 42 42 43 43 42 42 41 42
46 48 49 50 53 56 57 53 53 54 51 47 45 45 42 41 40 41 41 41 41 41 42 42 42 41 41 42 42 41 41 41
46 47 48 50 52 53 53 52 52 47 46 45 44 43 41 40 40 40 39 40 41 41 41 41 40 39 39 41 40 39 40 40
46 48 49 50 49 44 43 43 43 44 45 44 44 43 43 39 38 38 39 40 41 41 40 39 39 40 39 39 38 37 37 38
46 46 43 41 42 42 43 43 43 43 43 43 42 41 41 41 38 38 37 39 39 39 40 39 39 40 38 39 39 38 37 35
43 43 42 42 43 43 43 44 44 44 43 43 43 41 40 39 38 37 37 38 39 38 38 39 39 39 38 38 37 37 37 36
43 43 43 43 43 42 44 44 44 44 43 43 41 39 38 37 37 36 36 37 38 37 37 39 39 38 38 38 37 36 36 35
43 43 43 44 43 41 43 43 43 43 42 41 40 39 38 37 36 36 35 35 36 37 35 38 39 39 38 38 37 36 35 34
43 43 42 43 42 41 41 41 42 41 41 40 40 39 38 38 36 36 36 35 36 36 35 35 38 38 38 38 37 36 35 34
41 41 41 41 39 39 40 40 41 40 39 38 38 39 39 38 37 37 36 36 37 36 35 34 36 37 39 39 38 35 34 34
39 39 39 39 38 36 39 39 38 39 38 37 36 35 34 35 36 36 36 37 36 35 35 35 36 35 34 37 36 34 33 33
38 37 36 35 33 33 35 35 34 34 34 34 34 33 32 32 33 35 36 36 36 35 35 35 34 34 34 32 31 30 29 27
37 36 34 33 32 32 32 31 31 31 34 32 30 31 32 32 32 33 34 35 35 35 34 34 35 36 32 29 29 27 25 24
35 35 35 33 30 31 30 29 30 30 29 29 31 31 32 32 32 32 33 34 34 35 35 36 36 32 29 29 27 25 23 24
34 34 33 32 30 29 27 28 29 27 28 30 31 32 33 32 32 33 34 35 35 35 36 37 34 30 29 25 23 24 24 24
34 34 33 32 32 27 25 25 26 27 27 30 32 33 33 33 33 34 35 35 35 34 33 32 30 26 23 25 26 26 26 26
33 33 34 34 25 23 23 22 24 26 26 32 33 33 33 33 34 34 34 34 34 34 32 29 25 24 30 30 29 26 25 25
34 34 30 25 22 22 21 22 24 25 31 32 32 33 33 32 33 33 32 32 30 30 27 25 24 26 29 26 27 24 22 21
33 26 24 23 22 20 22 22 22 30 29 29 29 31 31 32 32 34 31 32 32 28 25 24 24 24 23 23 24 23 21 20

GFSFLT1_sfc_dewp_033.txt.gz
Dewpoint
50 55 58 59 59 59 58 58 57 55 54 52 48 45 44 44 44 42 43 43 45 44 43 43 40 38 38 39 40 39 41 39
51 54 57 58 59 57 57 55 55 55 53 48 44 45 43 42 41 43 43 43 43 43 39 40 39 37 40 41 38 38 34 38
51 52 55 58 57 56 57 57 54 51 47 46 46 43 42 41 41 42 42 43 42 41 41 39 40 37 39 40 39 34 35 39
49 52 55 56 56 56 54 52 51 49 47 46 44 43 42 40 40 39 41 42 40 41 41 40 41 40 37 40 39 35 31 34
48 48 48 48 47 48 49 48 46 47 47 46 46 44 43 42 41 41 40 42 41 39 40 41 41 41 39 37 37 37 36 31
44 43 42 43 45 46 47 46 45 46 45 46 46 45 43 41 42 41 42 41 42 40 40 41 41 40 39 40 40 40 38 35
43 43 44 44 45 46 47 46 46 46 46 46 46 45 43 42 42 41 41 40 40 41 39 41 42 41 41 40 41 40 39 37
43 43 43 44 44 46 46 46 44 45 45 45 44 44 44 42 41 40 40 39 38 39 41 41 40 41 41 41 41 40 39 38
43 44 45 45 44 44 45 44 44 43 43 43 43 43 42 41 41 40 39 39 39 41 40 39 38 39 41 41 39 39 41 40
44 45 45 44 44 43 45 43 43 42 43 42 42 41 41 41 40 40 39 40 37 39 40 39 39 39 39 39 37 37 38 38
43 43 43 42 41 41 43 42 42 41 40 40 38 38 37 37 37 37 37 37 38 38 38 39 39 38 37 36 35 34 33 35
41 40 40 38 36 37 39 39 37 36 36 37 36 35 35 35 35 35 36 37 36 36 37 38 37 36 37 36 35 32 30 30
38 37 35 34 34 36 35 34 32 34 35 33 33 34 33 34 34 34 34 33 35 35 37 36 36 37 37 33 29 30 29 28
37 35 34 33 33 34 31 32 31 29 28 29 32 33 33 33 32 33 34 35 36 38 37 37 35 31 31 30 30 28 25 26
36 35 34 32 31 31 30 30 29 27 27 29 32 34 33 33 33 34 35 36 36 36 36 37 35 32 30 27 25 26 27 27
35 34 34 33 33 29 28 27 28 28 26 30 34 34 33 33 33 34 36 35 34 35 34 34 30 26 25 28 28 27 25 22
35 34 33 34 30 26 25 25 25 28 26 30 33 33 33 33 33 34 35 34 34 34 33 29 27 25 30 27 27 24 20 17
34 34 34 32 26 25 23 23 25 26 28 32 31 31 31 32 32 33 32 34 33 34 31 27 26 27 25 24 26 21 19 17
35 33 28 26 24 23 24 22 24 27 31 29 29 30 30 30 30 29 31 35 34 33 28 26 25 20 23 22 22 19 19 17

GFSFLT1_sfc_dewp_036.txt.gz
Dewpoint
49 53 51 52 56 59 60 61 60 58 57 57 50 48 46 46 44 44 45 46 47 45 41 42 38 35 35 36 37 35 34 35
52 56 57 57 59 60 60 59 58 58 56 54 49 45 45 45 44 45 46 45 42 41 37 38 37 37 37 37 34 34 32 36
53 56 58 58 58 60 60 59 60 57 55 50 48 47 45 44 44 45 45 42 40 37 38 37 38 34 37 38 38 35 31 33
53 56 58 58 58 59 58 59 58 54 50 48 47 46 45 43 43 43 43 42 39 39 39 38 39 38 35 38 38 37 33 33
54 54 56 57 58 58 56 54 52 50 49 46 46 43 42 44 44 44 40 42 41 37 37 40 40 39 39 38 34 39 36 33
49 47 49 51 54 54 52 50 48 48 48 48 47 46 46 44 44 42 42 42 41 39 39 40 40 39 40 41 40 38 36 34
44 43 44 44 47 49 49 47 46 47 48 48 48 47 44 41 40 38 35 37 37 38 39 42 42 42 42 41 40 39 38 38
42 41 42 44 47 48 48 46 46 47 48 47 46 43 40 38 38 37 39 37 37 38 41 41 40 40 41 41 41 39 39 38
41 42 43 44 46 47 46 45 44 45 45 43 42 40 40 39 39 40 39 38 37 37 36 35 35 35 37 40 39 38 37 37
42 43 45 45 46 47 47 44 43 43 43 42 41 42 40 39 38 38 35 34 30 31 34 33 32 34 36 38 38 38 36 35
43 44 46 46 45 46 47 44 42 42 41 41 39 39 37 35 35 33 32 32 31 32 32 32 33 34 36 37 37 37 36 34
43 44 45 44 42 42 41 41 39 39 37 38 37 34 33 33 32 31 31 33 32 31 32 33 33 34 36 38 39 38 32 31
43 44 43 40 38 37 39 37 35 35 35 33 31 30 30 32 31 30 33 33 32 32 34 33 34 34 35 33 33 32 31 30
42 41 39 37 36 36 35 34 33 31 28 27 28 29 30 30 30 32 32 32 32 34 33 33 33 35 34 33 31 29 28 28
39 38 37 35 35 33 33 33 31 28 24 24 27 30 31 31 32 32 32 33 33 32 33 34 34 32 29 28 26 28 28 26
38 38 36 33 33 32 31 31 29 26 24 24 27 32 32 31 33 32 32 34 33 33 33 33 31 28 26 29 27 26 26 23
37 37 35 33 33 32 30 28 26 25 25 25 29 32 30 31 31 31 32 33 32 32 32 31 29 24 28 25 26 24 22 19
37 36 34 33 33 29 27 24 25 25 24 27 30 30 30 30 29 29 29 31 32 33 32 31 29 29 23 23 23 21 20 19
38 36 34 33 28 25 25 22 23 24 25 28 28 29 28 28 28 29 30 31 32 31 32 31 29 26 22 21 22 22 22 21

GFSFLT1_sfc_dewp_039.txt.gz
Dewpoint
43 47 46 46 54 59 60 59 61 59 59 58 56 55 52 50 48 46 47 47 47 46 43 44 41 38 38 37 38 35 34 32
48 51 50 50 57 59 59 59 59 59 56 55 53 51 47 47 45 47 48 47 43 43 40 40 40 36 37 40 38 38 35 35
50 53 54 54 58 59 60 59 59 58 52 54 54 50 47 47 46 48 47 44 41 39 41 39 39 37 38 39 40 37 36 35
50 53 56 57 58 58 59 58 58 56 56 51 49 48 47 45 45 46 44 42 40 39 39 39 39 39 37 39 39 38 33 34
50 53 56 57 57 59 57 55 54 52 50 48 48 43 42 44 44 44 44 43 41 38 37 39 41 39 39 39 35 39 37 33
51 53 56 57 57 56 54 53 50 48 48 47 47 46 47 46 46 45 44 42 40 38 39 40 41 39 40 42 42 42 38 36
49 51 50 50 53 53 51 49 47 48 48 49 48 47 44 43 43 40 37 35 35 37 37 40 40 39 39 39 40 38 39 40
45 45 45 47 50 50 49 46 46 47 48 48 47 45 43 39 39 37 36 35 35 37 39 37 35 35 35 36 38 39 40 41
43 42 42 45 47 48 47 46 46 47 47 45 44 41 39 38 37 37 36 35 34 35 33 33 33 32 33 35 35 38 38 41
41 41 43 44 46 48 48 46 44 45 44 43 42 44 39 36 37 37 34 34 30 31 33 32 32 32 33 34 34 36 39 39
41 42 44 45 46 48 49 47 44 42 41 42 40 41 37 35 35 33 32 32 32 31 31 31 33 33 33 33 35 37 37 38
41 42 44 46 46 47 47 44 41 41 39 39 42 36 34 33 33 32 30 32 31 29 30 32 32 31 35 37 36 35 33 33
42 43 45 46 45 45 43 40 39 37 36 39 37 34 30 31 31 29 31 31 30 30 31 31 32 32 33 33 33 33 32 30
42 43 44 44 43 42 40 39 36 34 36 33 30 30 30 30 28 30 31 31 30 31 31 31 32 32 32 33 31 31 28 27
41 43 43 42 41 39 38 36 36 35 31 27 26 29 30 29 29 31 32 30 31 31 31 31 32 31 29 28 25 27 26 23
41 42 41 40 39 38 34 37 35 32 28 25 26 28 30 30 31 32 31 32 32 31 30 31 31 29 25 29 26 26 24 23
40 40 39 39 37 35 35 35 32 30 26 26 26 26 29 30 31 31 30 30 30 30 30 31 31 26 28 25 25 25 23 21
39 39 39 38 36 35 34 30 28 27 26 25 24 28 28 28 27 27 28 29 31 31 31 32 30 30 26 24 23 23 23 22
39 39 39 38 36 34 30 29 28 26 24 23 24 27 27 26 26 27 29 31 31 30 31 32 30 28 26 23 22 23 23 23

GFSFLT1_sfc_dewp_042.txt.gz
Dewpoint
41 43 48 52 57 59 60 59 60 59 59 59 58 57 56 54 51 49 50 50 51 50 48 47 45 42 42 42 42 41 41 40
44 48 49 54 60 60 60 60 59 59 57 55 54 53 51 51 48 50 51 50 47 45 46 44 43 42 42 41 41 40 40 40
47 50 52 56 59 60 60 59 59 58 55 54 54 52 50 49 49 51 51 48 45 44 44 43 43 42 42 43 42 41 39 40
48 51 53 57 60 60 59 59 58 58 54 56 55 52 51 50 49 50 49 47 44 43 42 42 43 43 42 42 41 41 38 38
48 51 54 57 59 60 60 59 57 57 57 52 51 47 46 47 48 49 46 46 45 42 41 42 43 44 43 43 39 42 40 37
48 51 55 55 58 59 60 58 54 54 52 52 51 50 49 49 49 49 47 48 46 43 43 43 43 43 43 43 43 41 41 40
49 54 56 55 58 59 57 54 52 51 51 52 51 51 48 48 47 47 46 43 41 42 43 43 42 41 39 39 39 38 38 39
50 52 53 54 54 55 54 51 48 50 51 51 51 49 47 44 43 42 40 40 41 41 40 38 38 38 38 38 37 38 38 39
48 50 49 51 52 52 51 49 47 49 51 50 49 46 45 44 44 41 40 39 39 38 37 37 37 36 36 36 37 37 37 40
45 47 48 49 50 51 51 48 47 49 50 48 46 44 43 42 40 39 39 38 33 37 36 35 35 36 37 37 36 37 38 38
44 43 46 46 49 51 52 50 47 48 46 46 44 44 42 40 39 38 36 35 35 35 35 34 35 36 36 38 37 37 36 37
43 42 44 46 48 49 50 48 45 45 44 44 43 41 40 38 37 35 34 34 34 33 33 34 34 34 35 35 35 34 34 34
42 42 44 45 47 48 49 48 45 43 43 41 42 40 38 37 36 34 33 33 34 33 33 33 33 33 33 34 34 33 32 32
42 43 43 45 47 47 47 46 43 40 37 38 38 38 34 34 34 32 33 33 33 33 33 34 33 34 32 33 33 32 31 29
40 42 43 46 46 46 44 42 41 38 37 36 36 36 35 34 32 33 34 34 33 33 34 34 34 32 31 31 30 29 28 26
39 42 44 45 45 44 42 41 39 40 36 33 34 34 34 33 33 34 35 35 33 34 34 34 32 32 28 30 27 27 27 25
40 42 43 44 43 41 40 38 39 37 35 33 33 31 32 33 33 35 35 34 33 33 33 33 32 29 30 28 26 24 25 25
39 40 42 43 41 41 39 38 38 34 32 31 30 31 31 32 31 30 30 32 34 34 33 33 33 32 29 26 24 23 24 25
39 41 42 42 41 39 39 34 31 33 31 28 27 30 30 30 30 30 32 33 33 33 32 33 33 31 30 27 24 22 25 25

GFSFLT1_sfc_dewp_045.txt.gz
Dewpoint
47 48 51 52 56 59 58 58 57 57 57 56 56 54 54 53 50 49 48 49 49 46 45 43 42 41 40 39 39 40 39 39
45 48 52 56 59 58 58 57 57 57 56 54 53 52 51 49 47 48 49 49 45 45 45 43 41 40 38 40 39 38 38 38
43 45 55 58 58 58 58 57 57 57 56 54 53 50 48 47 47 47 49 47 44 42 41 41 40 39 40 40 39 39 39 38
45 49 57 58 58 59 58 58 57 57 57 53 53 50 48 48 47 48 47 44 42 42 41 41 40 41 40 40 40 39 38 38
47 49 57 58 59 59 58 58 58 58 55 54 52 48 47 47 47 48 44 44 43 41 40 40 41 42 40 41 41 40 40 37
48 50 56 58 59 59 58 58 58 57 56 53 50 48 47 48 48 46 45 45 44 41 42 42 40 41 38 36 35 36 37 37
49 52 55 58 59 59 59 58 57 55 53 50 48 48 47 47 47 46 46 45 43 41 39 37 37 36 35 36 35 35 36 36
52 54 54 56 57 58 58 58 52 50 49 49 49 45 44 44 44 43 40 39 39 36 35 35 35 35 34 35 35 35 35 36
54 55 54 55 56 56 55 51 49 49 48 49 47 42 42 41 42 40 40 39 37 35 35 34 33 34 34 34 35 35 36 36
50 51 52 53 52 51 49 47 47 49 49 46 43 42 41 39 39 39 38 37 34 35 34 31 32 33 34 37 36 36 35 36
47 48 49 50 49 49 49 47 48 49 45 43 41 41 39 39 38 37 36 35 34 33 31 31 32 34 35 34 35 34 34 34
45 45 47 48 48 49 48 47 47 44 42 42 41 39 40 40 38 37 35 34 33 31 31 31 32 34 33 33 33 33 32 32
44 42 45 46 47 48 49 46 44 43 42 41 40 40 41 37 36 35 35 33 33 31 32 32 33 33 32 31 33 33 32 31
43 42 44 45 47 48 48 45 43 40 38 39 43 42 39 36 35 35 33 33 31 31 32 33 33 33 30 31 32 32 30 29
42 41 43 45 47 48 47 43 40 39 38 39 39 39 37 34 33 33 33 32 31 32 33 34 35 32 31 32 30 28 27 26
41 42 46 48 48 48 44 42 39 39 38 37 38 38 35 34 34 34 34 33 32 32 33 34 33 31 29 29 27 26 25 25
41 46 46 46 46 43 41 38 39 39 38 36 34 35 33 35 33 33 33 33 32 33 32 33 32 30 31 30 27 24 24 24
39 42 44 45 43 42 38 38 40 38 33 32 33 34 33 32 31 30 29 30 31 32 31 32 33 31 31 30 28 23 23 23
38 40 41 41 42 39 38 35 32 32 30 31 31 31 30 30 29 29 30 32 32 31 31 31 33 32 32 31 27 22 23 24

GFSFLT1_sfc_dewp_048.txt.gz
Dewpoint
54 50 52 52 53 59 58 57 57 56 56 55 54 53 53 52 49 48 49 50 47 45 44 43 42 40 39 39 38 38 38 38
49 49 50 51 58 58 57 56 56 56 55 53 52 51 52 49 48 48 49 48 47 45 44 42 41 38 40 40 39 37 37 38
48 49 50 57 58 58 57 56 56 55 55 53 53 51 50 47 47 48 49 45 44 43 42 40 39 40 39 39 38 38 38 38
47 51 55 57 57 57 56 56 56 56 55 53 50 49 47 46 46 46 48 45 43 42 42 40 40 40 39 39 39 38 37 38
48 52 56 57 57 58 56 56 56 56 56 53 49 47 46 47 46 47 46 44 43 42 41 41 42 41 40 40 37 36 37 33
49 55 56 57 58 58 57 56 56 56 56 53 50 48 47 47 47 47 45 44 43 42 42 41 39 38 36 35 34 34 35 35
47 56 57 58 58 58 58 57 57 58 57 53 51 48 47 47 47 45 44 44 42 40 37 37 36 35 34 34 33 33 33 34
50 56 57 58 58 58 58 57 57 57 56 53 51 48 47 47 47 46 42 39 38 37 36 35 35 34 34 34 33 34 35 35
50 55 57 58 58 58 58 58 56 54 52 50 48 46 46 46 44 42 40 39 38 37 38 36 34 34 34 36 36 36 34 35
52 53 56 57 58 58 58 58 54 51 50 47 43 42 42 41 40 40 39 38 37 37 33 33 33 35 36 35 34 33 33 34
53 54 54 56 56 54 51 51 49 49 47 44 42 44 43 40 39 39 38 37 35 35 34 32 33 35 34 34 33 33 32 32
51 51 52 52 52 49 47 47 48 46 43 44 43 42 43 43 40 39 36 38 37 34 32 31 32 34 33 33 31 32 32 32
48 49 50 49 49 48 47 47 46 43 42 42 40 41 43 41 39 39 39 36 35 33 33 31 33 33 33 31 31 32 32 31
46 47 49 49 48 48 47 46 44 42 40 40 42 44 41 41 38 37 37 34 33 31 31 32 33 34 32 31 32 32 31 28
44 44 47 48 48 49 47 45 46 41 41 42 43 43 40 36 37 35 34 33 31 31 32 33 34 34 32 32 32 32 28 26
44 44 44 46 48 48 46 44 44 44 43 42 43 42 37 36 35 34 34 33 31 31 33 34 34 34 31 32 29 28 26 25
41 45 47 47 48 45 44 44 44 43 41 41 40 36 36 36 35 34 34 33 31 32 33 33 33 31 32 33 29 26 25 24
45 46 47 47 47 45 44 42 43 38 36 36 37 36 35 35 33 31 29 30 31 32 32 32 32 33 33 33 31 25 24 24
40 42 43 42 40 39 38 36 34 35 32 32 33 33 32 32 31 31 33 33 32 32 32 32 31 33 33 33 31 24 23 24

GFSFLT1_sfc_dewp_051.txt.gz
Dewpoint
55 56 56 57 53 58 59 58 57 56 55 54 54 54 53 52 51 50 49 48 45 44 43 43 41 40 39 39 38 38 37 37
56 56 55 53 55 58 58 56 56 56 54 53 52 52 51 49 48 48 49 47 45 43 42 41 39 38 39 38 38 36 38 38
54 52 52 52 56 58 57 56 56 56 55 53 52 51 51 48 48 48 48 47 45 43 41 40 39 41 39 38 38 38 38 38
52 49 51 52 56 57 57 56 56 55 54 52 50 48 48 46 46 47 48 44 45 43 41 40 40 40 39 39 38 37 35 36
49 49 50 53 55 57 57 57 56 55 54 52 49 48 47 46 46 46 48 45 43 42 41 40 41 41 40 38 36 36 35 31
47 49 50 53 56 57 56 57 56 56 54 53 51 48 47 47 46 46 46 44 43 41 41 41 40 38 35 34 34 33 34 33
46 48 51 54 57 57 56 56 56 56 55 54 51 49 47 46 46 46 44 43 42 41 39 38 37 36 34 33 33 32 33 34
45 50 54 56 57 57 57 56 56 56 56 55 53 49 47 47 46 46 43 40 37 37 38 39 37 35 35 34 34 35 35 34
49 54 55 56 57 57 58 57 56 56 56 55 53 50 48 47 47 45 41 38 38 38 40 39 36 35 36 37 36 35 33 34
50 55 56 57 57 57 58 57 57 57 56 55 50 48 47 45 43 42 41 39 39 40 38 37 37 38 37 34 34 33 33 34
50 55 56 57 57 58 58 58 57 55 52 49 46 44 44 41 42 41 39 41 40 39 38 38 35 36 35 34 33 33 32 33
53 54 56 57 57 57 57 57 55 49 47 44 44 43 42 42 40 39 38 40 40 41 37 35 34 34 34 32 32 32 32 32
53 53 54 55 55 55 55 54 51 48 47 45 43 42 41 40 38 38 42 44 41 36 36 33 34 34 33 33 31 31 31 31
51 52 52 53 53 53 51 49 48 47 45 43 42 42 41 40 40 43 43 38 37 35 33 32 32 33 33 33 31 31 31 31
46 49 51 52 51 50 49 49 48 45 43 42 43 43 43 43 43 40 37 35 33 32 32 33 34 34 33 33 31 32 32 30
45 45 47 49 49 50 48 47 46 45 43 44 45 44 42 40 38 35 34 34 33 33 33 33 34 34 33 32 31 29 29 27
43 45 46 47 49 48 45 45 46 46 45 45 41 38 36 37 37 36 35 34 33 33 33 34 33 31 33 34 32 28 27 25
44 45 46 48 46 44 44 45 45 43 39 38 38 37 36 35 33 32 31 32 36 34 32 33 32 32 34 34 34 27 25 25
39 43 42 42 41 41 38 37 35 35 35 34 34 34 33 33 33 34 38 38 33 31 31 31 31 31 34 34 33 28 24 24

GFSFLT1_sfc_dewp_054.txt.gz
Dewpoint
54 54 55 58 56 56 58 57 56 55 54 54 54 54 54 54 53 51 49 48 46 45 44 42 42 40 39 39 38 38 38 37
54 54 56 57 54 57 58 56 55 56 56 54 52 52 52 51 52 51 49 46 44 44 42 41 40 39 39 38 38 37 38 38
56 56 56 54 54 57 57 56 56 56 56 52 52 51 51 51 52 49 48 46 44 42 42 40 39 40 39 39 38 38 38 38
56 55 54 54 54 57 57 56 56 56 55 52 50 51 50 49 47 47 48 46 44 42 41 40 40 40 39 39 38 36 34 35
54 55 53 53 53 56 57 57 56 56 54 52 50 50 49 48 47 47 47 45 45 42 40 40 40 40 40 37 36 36 33 31
53 54 53 52 54 56 57 57 56 56 54 53 52 51 51 50 49 46 47 44 43 41 41 41 40 38 36 35 34 34 34 33
50 52 51 51 54 55 56 56 56 56 55 53 52 51 51 50 47 46 45 43 42 41 40 38 37 36 35 35 34 34 34 34
47 48 49 52 54 55 56 56 56 56 56 54 53 52 52 49 46 46 43 41 39 38 37 37 36 37 38 36 36 36 36 36
44 47 50 53 55 55 56 56 56 56 56 56 54 53 50 48 47 46 44 40 38 38 39 39 38 37 37 38 37 36 35 35
43 46 50 54 55 55 56 56 56 56 56 56 54 53 49 47 47 44 41 39 39 39 39 39 40 41 39 37 36 34 34 33
45 49 52 55 56 56 56 57 56 56 56 56 54 52 49 47 44 42 40 41 40 39 40 42 42 39 37 36 34 34 33 33
47 52 54 55 56 56 56 57 57 56 55 54 51 48 46 44 43 42 42 41 41 41 42 41 37 37 36 35 34 33 33 32
50 51 54 55 56 56 57 57 57 55 52 49 47 45 46 46 43 43 42 43 43 44 40 36 35 36 35 34 33 31 32 32
50 51 53 54 55 55 55 55 54 50 49 48 47 46 45 43 42 42 44 44 42 38 37 36 34 35 35 34 34 33 32 31
48 50 51 52 52 52 52 50 49 49 48 47 47 45 44 41 42 44 43 39 38 36 35 35 35 34 34 34 33 32 31 31
46 47 48 50 50 49 49 48 47 47 46 46 46 45 43 43 43 39 39 38 35 34 34 35 35 34 33 33 32 31 31 30
42 45 45 49 49 48 47 45 45 46 45 45 43 42 41 38 37 38 37 35 33 33 36 35 34 32 33 35 33 30 29 27
45 45 46 47 46 45 44 45 45 43 41 40 39 38 37 36 34 33 32 35 39 38 38 34 32 32 34 35 34 31 28 27
35 39 40 40 40 39 37 38 38 36 35 35 34 33 33 34 36 38 39 39 39 37 33 31 31 30 33 34 34 31 28 27

GFSFLT1_sfc_dewp_057.txt.gz
Dewpoint
55 56 56 57 57 58 60 61 61 60 60 60 60 61 61 60 59 58 56 55 52 50 46 46 44 42 43 42 43 42 41 41
55 55 56 57 58 59 60 60 60 59 57 57 57 58 59 59 57 56 54 52 50 49 44 45 44 43 43 44 43 43 41 42
54 55 56 56 57 59 59 59 59 58 57 57 57 57 58 57 57 55 53 51 48 47 46 44 43 43 44 44 44 41 42 41
54 55 55 56 57 58 58 58 58 58 57 56 55 56 55 54 54 54 52 49 47 46 46 44 44 44 43 44 44 42 38 38
54 56 56 56 56 58 58 58 58 58 57 56 55 55 55 55 55 54 52 49 47 44 44 44 45 44 44 43 40 40 37 32
53 55 56 56 57 58 59 59 58 58 57 57 57 56 57 54 53 52 52 50 47 44 44 45 45 44 44 41 40 39 36 34
53 55 56 55 57 58 59 58 57 58 57 57 56 56 55 53 53 52 50 48 47 46 43 44 45 43 41 40 39 38 38 36
50 53 54 55 55 56 58 57 57 58 57 57 56 55 55 53 52 50 50 48 46 45 44 44 41 39 39 39 39 40 39 39
49 50 53 53 55 56 57 56 57 57 57 57 56 55 55 54 52 50 50 49 46 45 43 41 39 39 40 41 41 39 39 39
47 48 51 53 53 55 57 56 56 57 57 58 57 56 55 54 51 51 50 48 43 43 41 39 40 42 43 41 39 37 37 38
43 46 50 52 54 55 57 57 56 57 57 58 57 56 56 54 52 50 47 44 42 41 41 41 43 44 41 39 37 37 37 36
43 45 48 52 55 56 56 56 56 57 57 57 57 57 56 53 50 47 44 43 43 40 42 44 44 40 38 38 37 36 36 35
46 47 51 54 55 56 56 57 57 57 57 57 57 56 53 51 48 45 44 42 43 43 44 43 39 39 38 37 36 34 35 34
48 50 51 53 55 56 57 56 56 57 55 55 53 51 50 48 46 45 45 45 44 44 41 40 39 38 38 38 36 35 35 34
48 50 52 54 55 56 56 56 55 53 51 50 49 48 47 46 46 45 45 44 42 40 40 39 40 39 36 35 34 35 35 34
45 48 51 52 53 54 53 52 50 50 48 47 47 46 45 44 45 43 41 41 40 40 40 39 37 36 36 36 34 35 35 34
45 46 48 50 50 50 48 48 47 48 47 46 44 43 43 41 40 40 41 40 38 37 37 37 38 36 35 35 35 35 34 33
44 44 46 47 47 46 46 46 46 44 43 42 40 39 39 39 37 36 36 38 40 40 40 39 39 40 35 35 35 34 33 33
39 40 41 42 42 42 41 40 39 38 36 35 35 35 35 36 39 41 41 41 41 41 40 39 36 33 34 34 34 33 33 33

GFSFLT1_sfc_dewp_060.txt.gz
Dewpoint
54 54 54 51 52 53 54 55 57 61 60 59 55 56 55 57 59 60 62 61 60 58 54 51 48 45 45 44 44 42 41 42
54 55 55 54 53 54 56 57 59 61 59 55 53 54 55 56 58 61 61 60 59 58 53 50 47 46 46 47 45 45 42 44
53 55 55 56 54 55 56 57 59 59 57 54 52 53 55 55 58 60 60 59 58 56 52 48 47 46 48 47 46 43 43 43
51 53 55 56 55 56 55 56 58 59 58 55 53 54 56 56 57 60 59 57 55 53 51 48 48 47 46 47 46 45 42 41
49 52 54 56 56 56 56 56 57 58 59 56 55 51 50 54 57 59 58 56 54 52 49 48 50 46 46 47 45 45 42 38
48 51 53 55 56 57 58 56 57 58 59 58 56 54 50 54 58 58 57 55 52 48 48 49 49 46 48 47 46 44 38 36
48 48 53 54 56 58 59 58 57 58 59 60 59 58 56 57 57 57 56 55 52 50 46 48 48 47 47 46 45 41 37 40
49 48 50 53 56 58 58 58 57 58 60 60 60 60 59 57 56 56 55 53 51 50 48 48 47 47 46 43 40 40 40 41
48 50 51 52 55 57 59 58 57 57 59 59 60 60 59 57 57 57 56 53 50 51 49 48 47 45 42 42 42 42 41 40
46 48 50 53 55 57 58 58 57 57 59 60 60 59 58 57 57 57 55 52 52 51 49 48 44 42 43 43 44 42 40 41
42 45 49 51 53 56 58 59 57 58 58 59 59 58 58 58 57 56 54 53 54 49 47 42 43 44 45 43 42 40 38 39
42 44 46 49 52 54 56 57 56 56 57 58 58 58 58 58 57 55 53 52 49 47 43 43 44 45 42 41 39 39 38 37
43 44 46 48 51 53 54 55 55 55 57 57 57 58 57 57 56 53 51 48 45 44 44 45 44 42 40 40 39 39 38 36
45 46 47 49 51 53 54 56 56 56 57 57 57 57 56 53 50 47 45 45 45 45 46 44 41 40 39 40 41 39 36 35
43 47 49 52 54 55 56 57 57 56 55 54 52 51 49 47 46 46 45 46 45 45 42 41 41 41 41 41 38 37 36 34
40 47 50 52 55 56 55 54 52 52 50 50 49 48 47 46 46 45 45 45 42 41 41 41 42 41 40 39 37 38 36 34
45 47 50 52 53 52 52 52 52 50 49 46 45 45 45 44 44 44 44 43 41 40 40 40 40 39 38 37 37 39 36 34
45 48 49 50 50 50 50 49 49 48 46 44 43 43 43 43 41 39 37 38 38 39 40 40 41 41 38 38 37 34 34 34
44 45 46 46 46 46 46 44 44 43 41 41 40 40 38 38 39 40 40 41 40 41 42 41 40 36 35 34 34 32 32 31

GFSFLT1_sfc_dewp_063.txt.gz
Dewpoint
50 50 49 49 50 52 52 52 54 55 57 55 52 53 52 52 53 54 59 62 61 59 56 56 53 50 48 48 49 45 43 41
50 51 50 50 52 52 52 52 53 55 54 52 50 50 51 52 53 56 59 61 61 61 57 56 53 50 50 51 49 47 43 44
48 51 51 50 51 52 52 51 52 54 54 53 50 48 49 50 52 56 60 61 61 59 59 55 54 50 52 52 50 46 45 45
48 49 52 52 51 52 52 53 53 54 54 53 49 49 50 51 51 54 60 61 59 59 59 56 55 52 51 53 50 47 44 45
48 51 53 54 53 53 53 53 53 54 56 53 52 47 46 49 52 53 58 59 58 57 57 55 53 52 52 51 50 49 47 44
44 48 52 53 55 55 55 53 53 54 55 56 54 52 50 50 52 55 59 60 58 57 56 55 53 51 52 52 52 49 46 43
41 45 49 51 53 56 56 55 54 55 56 57 57 56 55 50 51 56 59 58 57 56 53 54 54 52 52 51 52 49 43 40
43 41 46 49 52 55 56 56 54 55 57 57 58 58 58 57 55 57 57 57 57 56 54 53 52 52 51 50 49 46 43 41
43 45 44 48 51 53 56 55 55 55 59 58 59 60 59 59 58 59 58 58 58 57 55 52 51 52 51 49 44 43 43 43
40 44 47 46 50 54 57 56 55 56 59 60 61 61 61 60 60 59 58 59 56 54 52 51 51 52 46 44 44 44 44 43
39 43 47 49 50 54 57 58 56 56 57 60 61 61 61 61 60 59 58 57 55 52 51 51 47 44 44 45 44 43 41 41
40 41 44 47 50 53 55 57 57 57 57 59 61 60 60 59 59 58 58 57 55 53 51 45 45 45 46 45 42 41 40 40
39 43 44 45 48 51 54 56 57 57 57 58 60 59 59 59 58 58 57 54 50 47 45 46 46 45 44 42 40 40 39 39
37 42 44 47 49 51 53 55 54 54 55 56 58 58 57 54 50 49 46 46 46 46 46 45 45 43 41 41 41 41 42 42
36 40 45 48 51 52 53 56 57 57 57 55 54 52 50 48 47 46 45 45 45 45 45 42 42 41 41 41 41 42 41 40
33 42 45 50 53 56 56 55 54 53 52 50 50 49 48 47 47 46 46 45 44 43 42 42 42 41 41 42 41 41 40 39
41 43 48 52 54 54 53 52 51 50 49 48 48 47 46 46 45 44 44 43 42 41 41 41 41 41 39 39 39 38 39 38
45 47 51 52 52 52 52 50 49 47 47 46 46 45 45 45 44 43 42 42 41 41 40 40 40 41 39 38 38 39 36 33
47 48 49 50 50 50 50 48 47 46 45 44 44 43 41 41 40 41 41 40 40 40 40 41 41 40 39 38 35 33 32 32

GFSFLT1_sfc_dewp_069.txt.gz
Dewpoint
53 53 53 53 54 54 54 55 54 55 54 52 55 54 55 55 57 58 58 58 59 58 58 55 53 52 51 51 48 50 46 42
54 53 52 53 53 52 51 53 52 54 53 52 54 52 53 54 55 57 58 58 59 58 57 56 54 52 51 49 49 49 46 45
53 52 52 51 49 48 49 50 50 54 54 54 53 53 53 53 53 55 58 58 59 59 57 57 54 53 53 50 49 49 47 46
51 49 50 50 46 47 47 49 51 54 52 53 52 54 53 52 52 53 59 60 60 60 59 58 55 54 53 51 50 49 47 48
51 48 48 49 50 50 50 50 53 53 53 52 51 50 51 51 51 53 59 60 61 60 60 59 56 55 54 53 54 53 50 48
47 48 48 49 50 52 51 51 51 52 53 52 51 50 50 51 52 52 59 60 60 60 59 58 56 56 54 54 54 52 53 51
48 48 49 50 50 51 51 51 51 51 52 53 53 51 50 49 51 52 57 60 60 59 59 58 56 54 54 53 54 53 51 49
46 48 47 48 50 50 50 51 50 50 51 52 54 53 53 49 51 52 57 58 58 58 58 55 55 53 53 53 53 51 48 46
45 47 49 48 49 50 50 50 52 52 52 52 54 54 54 55 52 54 57 58 58 57 55 54 53 53 52 52 50 47 46 45
43 47 48 50 50 50 52 51 51 52 53 56 55 54 57 54 54 57 58 58 57 56 56 53 52 51 51 49 47 46 46 45
41 42 49 50 51 53 53 53 52 52 53 54 57 56 57 58 57 57 58 58 57 55 55 53 52 50 48 47 45 45 44 43
38 42 46 50 51 52 54 54 54 54 54 55 55 58 59 59 59 59 59 58 56 54 53 52 49 47 46 45 44 44 42 42
39 42 45 50 50 51 54 55 54 54 56 57 58 59 59 59 59 59 57 56 54 53 51 49 47 46 45 44 42 42 41 41
40 42 43 45 50 52 53 57 58 62 61 59 59 57 58 58 54 53 53 51 51 49 48 47 45 45 43 42 42 42 41 40
40 42 43 50 56 56 56 56 60 58 55 53 52 51 51 50 49 49 48 47 47 46 46 45 44 43 42 42 42 41 41 42
35 41 48 55 54 53 52 52 52 52 51 49 48 48 49 48 47 46 46 46 45 44 44 43 43 42 42 41 41 41 42 42
38 49 54 53 53 51 50 49 50 50 49 48 47 46 46 45 45 45 44 44 43 43 42 42 41 41 39 40 41 41 40 39
46 53 54 53 52 50 49 48 48 48 48 47 47 46 45 45 44 43 42 42 42 42 41 41 41 41 39 40 39 39 38 37
53 53 53 52 50 49 48 48 47 47 46 46 46 45 44 43 42 42 42 41 40 39 40 40 40 40 38 38 37 36 35 32

GFSFLT1_sfc_dewp_075.txt.gz
Dewpoint
55 55 55 55 56 57 57 57 57 57 56 56 56 55 56 58 57 57 57 54 55 55 53 53 53 52 51 49 46 45 43 42
55 55 54 54 55 56 57 56 56 55 55 54 53 53 55 56 57 57 57 56 56 55 54 54 53 51 51 49 47 46 46 43
53 52 53 54 54 55 56 54 55 54 53 53 53 53 54 54 56 56 57 57 57 56 55 54 53 51 50 48 47 48 47 44
53 52 52 53 53 54 54 54 54 54 51 50 52 52 52 53 53 55 56 57 57 56 56 55 53 52 50 49 48 48 46 47
52 52 51 52 53 53 53 53 53 54 53 49 50 50 49 51 52 53 55 57 56 57 56 55 54 52 51 50 50 49 49 48
52 51 52 51 53 53 51 51 52 53 52 51 50 49 49 51 51 52 52 56 57 57 57 55 55 54 53 53 52 50 51 51
52 51 51 51 51 51 50 49 49 50 51 53 50 51 52 52 51 51 52 53 56 57 57 57 56 55 54 53 53 52 51 51
52 50 50 51 49 49 48 48 47 48 50 52 52 52 52 51 52 52 51 52 55 56 57 57 57 57 56 54 55 53 51 50
51 51 49 49 47 46 47 46 46 47 49 51 53 52 52 52 51 52 53 52 53 56 58 58 58 57 56 55 54 53 51 51
51 51 49 48 45 45 46 46 46 46 49 51 52 53 52 51 52 51 52 53 53 56 58 58 57 54 55 54 53 51 50 49
50 50 50 48 46 45 46 47 47 48 49 51 52 53 54 54 54 53 52 53 55 56 55 54 54 54 52 52 51 50 49 48
48 49 50 49 49 49 48 48 49 50 50 51 52 52 52 55 55 54 55 56 56 56 56 55 54 52 51 51 50 48 47 46
47 48 48 49 49 49 49 49 50 54 55 55 54 54 53 54 56 56 57 57 57 57 57 57 54 52 51 50 48 48 46 46
43 46 47 48 49 49 49 51 52 53 55 54 55 55 55 55 56 57 57 57 57 58 56 54 53 51 49 48 47 46 45 45
40 41 44 47 48 49 50 51 53 54 55 55 55 55 56 57 57 57 57 58 56 54 54 53 50 48 47 46 46 45 44 43
40 42 46 50 49 51 51 52 53 55 55 55 55 54 53 53 55 56 54 53 52 51 49 46 46 46 46 45 44 43 42 42
39 44 52 52 52 51 52 53 52 53 52 53 51 51 50 49 48 48 47 47 47 46 45 44 44 44 42 41 42 42 42 42
40 45 52 52 52 53 52 52 52 52 51 50 49 49 48 47 47 46 45 46 45 44 43 43 43 42 39 40 39 41 39 38
36 45 52 51 51 51 51 51 51 50 49 49 49 48 46 45 45 44 43 43 42 42 42 42 42 41 39 38 37 36 32 29

GFSFLT1_sfc_dewp_078.txt.gz
Dewpoint
54 53 55 55 56 57 57 57 57 58 58 58 58 58 59 58 57 56 54 54 54 51 51 51 52 51 49 47 46 46 43 41
54 55 55 55 56 57 57 56 57 57 57 56 57 56 57 58 57 56 55 54 54 53 53 52 52 51 50 48 47 46 45 43
54 54 54 54 55 56 56 56 56 56 55 57 57 54 56 57 57 56 55 55 54 54 53 52 53 51 51 49 47 47 46 44
53 53 53 54 54 55 55 55 55 55 55 56 54 55 55 54 55 56 56 56 55 55 55 54 53 52 51 49 48 47 46 46
52 52 51 51 53 53 55 54 54 54 54 54 53 52 52 54 53 54 55 56 56 56 55 55 54 53 51 50 49 48 48 47
53 52 52 52 52 54 53 54 54 54 52 51 51 51 51 52 52 53 54 55 56 56 56 55 54 53 52 51 50 49 50 49
53 52 52 52 52 53 52 53 53 54 53 51 50 50 50 50 51 52 52 53 55 56 56 56 55 54 53 52 51 50 50 49
52 51 51 51 51 51 51 51 52 52 53 52 51 50 51 50 50 50 51 52 52 54 55 55 55 55 54 54 52 52 51 51
51 51 51 51 51 51 51 50 50 50 51 51 52 51 51 51 51 51 51 51 52 54 55 56 56 56 55 55 54 54 54 52
51 51 50 50 50 50 50 50 49 49 49 50 50 53 52 51 52 52 52 52 53 53 54 56 55 55 55 54 55 54 53 54
51 51 50 50 49 49 49 49 48 48 47 49 49 51 52 52 52 52 52 53 53 54 54 55 54 54 54 54 55 54 52 52
50 51 51 49 48 47 48 48 48 47 47 47 50 52 53 54 54 53 53 53 53 54 55 56 55 55 54 54 54 51 51 50
49 51 51 49 48 45 46 47 47 50 51 51 52 52 53 53 54 53 54 54 54 55 56 56 55 55 53 53 51 50 49 48
46 47 49 50 49 48 47 47 48 49 51 52 52 53 52 52 53 53 54 54 55 55 56 56 56 53 52 52 51 49 49 48
43 45 47 48 49 49 49 50 50 50 51 52 52 54 54 54 53 54 54 55 56 56 56 55 53 51 51 49 49 47 47 47
39 42 43 47 48 49 50 51 51 52 53 53 52 53 54 54 54 54 54 54 55 55 52 50 49 48 47 47 47 45 44 45
36 40 42 44 46 48 50 50 51 52 53 53 53 53 54 54 52 52 52 51 50 50 49 48 46 45 41 42 44 44 45 43
33 38 42 47 49 49 50 52 50 52 52 53 53 51 50 49 49 48 47 46 46 45 45 44 43 43 41 41 41 43 42 38
31 35 43 50 50 50 51 53 52 52 51 50 50 49 48 47 47 46 44 44 43 43 43 43 42 40 38 38 37 35 33 31

GFSFLT1_sfc_dewp_081.txt.gz
Dewpoint
53 54 54 55 56 57 57 56 57 57 59 59 59 59 59 59 56 54 54 52 51 50 49 52 52 50 48 47 46 46 43 41
54 54 54 54 56 57 57 56 56 58 57 58 58 57 58 58 58 56 55 54 52 52 51 51 52 51 51 52 49 48 45 45
54 54 55 54 55 57 57 56 56 56 57 58 58 58 58 58 58 57 55 55 54 52 53 51 52 51 53 51 50 47 47 46
54 54 55 54 55 56 57 56 56 56 58 57 57 57 57 57 57 55 56 55 54 53 54 53 54 54 52 53 52 51 48 48
53 53 54 54 54 56 56 56 56 56 57 56 56 54 54 55 55 53 53 56 55 54 54 54 55 54 54 54 53 52 52 50
53 53 53 52 53 55 56 56 56 56 56 56 55 55 54 54 54 55 57 57 56 54 55 56 56 56 56 56 55 54 54 53
53 54 54 52 52 53 54 54 55 55 55 55 55 55 55 54 54 54 56 56 57 58 57 57 57 57 57 57 57 56 55 54
52 53 52 52 52 52 53 53 54 55 54 54 55 54 55 54 55 55 55 56 56 58 58 59 58 58 58 58 57 56 56 56
52 52 53 53 52 51 52 54 54 55 55 54 53 54 53 53 54 54 54 55 55 56 57 58 58 58 58 58 59 58 58 57
50 52 53 53 52 53 53 53 54 54 54 55 54 54 54 53 54 54 55 55 54 56 56 57 57 58 58 58 59 58 58 58
50 51 52 52 52 52 54 53 53 53 54 54 54 54 54 54 55 55 55 56 55 55 56 56 57 57 58 58 58 58 57 57
50 51 52 52 52 51 52 52 52 52 52 53 54 54 54 55 55 55 55 56 55 55 55 56 56 57 58 58 57 56 55 55
49 51 51 51 51 50 50 51 51 53 53 53 53 54 54 54 53 54 56 55 55 55 55 55 55 56 56 55 56 55 53 52
49 51 51 51 51 50 49 50 52 52 52 52 52 52 52 53 52 54 55 55 55 55 55 55 55 56 56 55 55 54 53 52
46 49 51 51 51 50 49 50 51 51 50 51 52 52 52 52 52 54 55 55 55 55 56 56 56 56 56 55 54 53 52 51
41 45 48 51 51 50 49 50 50 51 51 51 51 53 53 52 53 55 56 56 56 56 56 57 57 56 54 52 52 50 49 46
36 40 44 48 50 51 51 51 51 51 50 51 52 52 52 54 54 56 56 56 56 56 56 55 52 50 45 44 47 47 45 44
33 37 41 44 47 50 51 51 52 52 51 51 52 52 52 54 55 54 55 55 52 50 48 48 46 45 40 41 41 45 43 39
34 34 39 45 48 48 51 51 52 52 52 52 53 54 54 51 51 51 48 47 46 45 44 44 43 41 39 38 37 37 35 33

GFSFLT1_sfc_dewp_084.txt.gz
Dewpoint
52 53 54 54 56 58 58 57 57 58 60 59 59 59 59 59 56 52 51 49 51 51 49 51 47 45 46 45 46 45 44 42
53 54 55 55 56 57 57 56 57 59 58 58 58 57 58 58 56 55 54 48 49 50 49 50 48 47 49 51 48 48 44 44
53 54 55 55 55 57 57 56 56 57 58 59 58 58 58 57 56 55 54 54 49 49 51 51 51 51 53 52 52 49 47 46
53 54 55 56 55 56 57 56 56 57 58 58 58 57 58 57 57 55 54 54 51 50 52 53 54 53 53 54 53 52 48 49
52 53 54 56 55 55 57 57 56 56 57 57 56 54 54 55 55 55 55 55 54 50 52 53 55 53 53 55 53 53 53 50
51 53 54 55 54 54 56 57 56 56 57 57 57 55 54 56 54 53 53 56 56 53 53 54 55 53 55 55 55 55 53 53
50 53 54 54 54 54 56 56 56 56 56 57 57 56 55 55 53 52 49 52 53 56 53 55 55 54 55 56 57 57 56 55
49 52 53 54 54 54 54 55 55 56 56 56 56 56 55 55 53 52 50 50 49 54 56 55 55 56 56 58 59 58 58 57
48 51 53 53 54 54 54 54 54 56 56 56 57 56 56 55 54 52 52 53 53 55 57 58 58 58 58 59 59 59 59 59
46 50 53 54 54 54 54 54 55 55 55 56 56 57 56 56 55 55 54 56 53 57 58 58 58 59 59 59 58 58 59 60
45 48 53 53 54 54 55 55 55 55 56 56 55 55 56 55 56 56 56 56 56 56 57 57 57 57 57 58 58 58 58 59
45 47 50 53 54 54 54 54 53 54 54 56 56 56 55 56 56 56 56 58 56 56 56 55 55 54 55 56 58 58 58 58
45 47 49 51 53 53 53 53 52 54 55 55 56 56 56 56 57 57 58 57 57 55 55 54 54 53 54 55 56 57 57 57
45 48 48 50 51 52 52 53 53 53 54 55 56 56 56 57 57 57 57 56 55 54 54 54 53 54 53 55 55 56 56 56
44 47 48 49 50 52 52 52 53 53 53 53 55 56 56 56 56 56 55 54 53 53 54 54 54 53 52 53 55 56 57 56
39 45 48 49 50 51 51 52 53 53 52 52 53 54 54 54 54 55 54 54 53 53 54 54 55 55 55 56 56 56 56 55
33 39 45 49 50 51 51 51 53 53 52 52 52 52 52 53 53 53 53 54 54 55 55 56 56 56 49 45 52 54 51 47
35 35 39 46 50 51 51 51 52 52 52 52 51 52 51 52 52 52 53 55 56 56 57 57 56 52 41 41 42 47 44 40
34 35 37 40 46 50 51 51 51 51 51 51 51 52 52 51 51 51 55 55 55 52 48 46 45 41 39 38 37 37 36 35

GFSFLT1_sfc_dewp_087.txt.gz
Dewpoint
48 51 52 53 54 56 58 58 58 59 60 59 58 57 57 57 56 55 55 54 54 53 52 53 52 51 53 51 52 51 50 47
48 52 53 54 55 56 57 57 58 59 58 57 56 56 56 56 55 56 55 54 52 52 50 51 49 48 49 52 52 52 48 47
48 52 54 55 55 56 56 57 57 58 58 57 56 56 55 55 54 53 51 52 50 51 52 50 51 49 52 53 53 49 46 49
48 52 54 56 55 55 55 56 56 58 59 58 57 56 57 56 55 52 51 50 48 50 55 52 54 54 54 56 55 53 49 49
48 51 53 55 56 55 56 56 56 57 59 57 55 53 52 53 52 50 53 54 52 50 54 56 55 55 55 56 54 55 54 50
46 51 53 54 56 55 56 57 56 56 58 57 57 54 52 52 52 52 53 56 56 53 52 56 56 55 57 58 57 56 54 52
44 50 52 54 55 56 56 56 56 56 57 57 56 55 53 54 52 52 54 54 55 55 52 56 56 57 57 57 58 57 57 57
43 49 51 53 55 54 56 56 55 56 57 57 57 56 54 55 53 53 51 52 53 55 55 57 56 57 57 57 59 59 59 57
42 48 51 52 54 54 54 54 55 56 56 56 57 57 54 54 55 53 51 51 52 54 58 57 56 57 57 58 58 59 60 60
40 46 52 53 54 54 55 54 55 56 56 57 56 57 57 55 55 54 52 50 48 51 56 57 58 58 58 59 59 60 60 61
39 44 51 52 54 55 55 55 54 56 56 57 57 57 57 57 56 55 55 52 52 53 55 57 58 58 59 59 59 59 59 60
37 43 48 52 53 54 54 54 53 55 56 56 57 57 58 58 58 57 57 56 55 55 55 57 57 58 58 58 58 58 57 58
37 43 47 51 52 53 53 53 52 55 57 57 57 57 57 57 58 59 59 57 57 56 56 56 56 56 57 57 57 56 56 57
41 44 45 49 52 53 53 53 53 54 54 57 58 58 57 58 58 59 58 58 57 57 56 56 56 56 56 56 56 56 56 56
39 43 45 47 50 52 52 53 54 54 52 54 56 58 58 58 58 57 57 57 57 56 57 56 57 55 54 54 53 55 56 56
33 41 45 46 48 52 53 54 54 54 52 53 55 57 57 56 58 58 57 57 57 57 56 56 56 55 53 55 54 54 55 56
32 34 41 46 47 49 52 53 54 54 53 54 53 55 54 56 57 57 58 57 56 56 55 55 56 53 47 45 51 57 56 54
33 34 34 40 47 49 50 52 54 54 54 53 53 53 53 55 54 54 55 56 57 56 56 55 55 57 43 43 43 49 46 41
36 34 36 36 39 47 50 50 51 53 53 52 52 52 52 52 52 53 54 56 56 56 56 54 50 43 41 41 39 38 36 35

GFSFLT1_sfc_dewp_090.txt.gz
Dewpoint
46 49 52 52 55 58 57 57 59 60 59 58 58 57 57 58 57 57 57 56 56 56 57 57 57 56 56 54 52 53 50 49
47 51 54 54 57 57 57 56 59 59 57 56 55 55 55 56 56 55 55 55 54 55 55 55 53 53 52 52 53 52 49 51
47 52 54 55 56 57 57 57 58 58 57 56 55 54 54 54 55 55 54 55 54 54 54 52 51 50 51 52 52 50 49 50
46 52 54 56 56 56 57 56 57 58 57 56 56 54 54 52 53 54 54 54 55 54 52 50 52 50 50 52 53 49 48 49
45 51 54 55 56 56 56 56 57 58 57 55 53 51 50 51 51 50 50 52 51 51 50 51 50 50 53 53 55 52 52 48
45 50 54 55 56 56 56 56 56 58 56 55 53 51 51 53 52 51 49 50 50 51 54 54 55 54 54 55 56 57 56 56
44 50 53 54 56 55 56 56 56 57 57 55 53 52 52 53 50 50 50 50 52 52 53 55 56 54 56 56 57 56 56 56
41 50 52 53 56 55 55 55 55 56 57 56 54 52 52 52 50 48 49 50 54 55 54 54 54 56 56 57 57 57 57 56
41 50 52 53 56 55 54 55 55 56 57 57 55 53 53 53 50 50 50 50 52 54 55 55 54 55 57 57 57 58 58 57
38 48 52 53 55 55 55 54 55 56 56 56 57 56 53 52 52 51 52 52 52 54 54 55 56 57 57 57 57 57 57 58
38 44 52 53 55 55 56 54 55 55 56 56 56 56 55 54 54 52 52 51 51 52 53 55 54 55 57 57 57 57 57 58
38 43 52 53 55 55 55 55 54 55 55 56 56 56 56 54 54 55 53 52 51 51 51 52 54 55 56 57 57 57 57 57
38 42 51 52 54 54 54 54 54 55 56 56 56 56 57 56 55 55 55 54 52 51 50 50 51 55 56 56 57 56 56 56
39 42 48 52 53 54 54 54 54 55 56 56 56 57 57 57 57 56 56 54 53 52 50 50 52 53 54 56 56 56 56 56
41 43 45 50 53 53 54 54 54 54 56 56 56 56 57 56 57 57 57 56 55 54 52 53 53 54 55 55 55 55 55 55
37 42 45 47 51 53 54 54 54 54 54 56 56 56 57 56 56 57 57 57 56 55 55 54 54 54 55 55 54 54 54 54
32 36 41 45 48 52 54 54 54 54 53 54 55 57 57 56 56 57 56 57 57 56 56 55 55 54 48 45 50 54 54 52
35 36 38 42 48 51 53 54 55 54 53 53 54 55 56 56 57 57 56 56 56 56 56 56 55 55 43 43 42 50 46 42
41 42 44 43 42 49 51 52 54 54 54 53 54 54 55 55 55 55 56 56 56 56 56 55 48 42 39 39 38 39 37 36

GFSFLT1_sfc_dewp_093.txt.gz
Dewpoint
47 51 51 57 57 57 57 57 59 59 59 58 58 58 58 59 60 61 62 62 62 60 59 57 56 55 53 51 50 50 50 49
47 51 53 57 57 56 56 57 59 58 57 56 56 55 56 56 58 59 60 61 60 59 58 57 55 54 51 50 52 49 49 48
49 51 55 56 56 56 56 57 58 57 57 56 55 55 55 55 56 56 57 58 58 57 56 55 54 52 51 51 51 49 48 50
50 50 54 56 55 55 56 57 58 57 57 55 55 54 54 53 53 54 55 56 56 56 55 53 52 51 51 50 50 48 46 48
50 50 54 55 55 56 56 56 58 57 56 54 53 52 51 52 52 53 54 55 55 54 53 52 52 50 49 51 52 49 47 45
50 51 53 55 56 55 55 56 57 56 55 54 52 51 51 52 52 52 53 54 55 54 53 52 52 52 50 52 53 52 51 50
51 52 53 55 55 55 55 56 57 56 55 53 51 50 50 50 50 51 51 51 51 52 52 50 51 51 53 53 55 55 55 54
51 52 53 54 54 54 55 55 57 56 54 53 51 52 52 50 49 50 49 49 50 52 51 52 53 53 55 54 55 56 56 56
51 52 53 53 54 54 54 54 56 56 55 53 51 52 52 51 49 50 49 48 49 51 53 54 54 54 55 56 56 56 57 56
50 52 53 54 53 54 54 54 55 56 56 54 52 52 52 51 50 49 50 50 50 54 53 53 53 55 56 56 56 56 56 55
50 51 52 54 54 54 54 54 54 55 56 56 53 52 52 52 51 50 50 50 50 53 54 54 53 54 56 56 56 56 56 56
43 50 52 54 54 53 53 53 54 54 55 56 56 54 53 52 52 50 52 52 52 52 53 53 53 54 55 56 55 56 56 56
39 50 52 54 54 54 54 53 54 55 55 55 56 56 55 53 52 52 51 52 52 51 51 52 53 53 53 55 55 55 56 56
41 51 51 53 54 54 54 53 53 53 54 55 55 56 56 54 53 53 52 52 51 51 50 51 51 53 54 54 55 55 56 56
41 50 51 53 54 54 54 54 54 54 55 55 55 55 56 55 54 53 55 54 52 51 50 50 50 50 52 54 54 54 55 55
37 44 50 52 53 54 54 54 54 54 54 54 54 54 54 55 56 55 54 54 54 53 52 51 50 49 49 53 54 54 55 55
35 37 45 52 52 53 53 54 54 54 55 54 54 55 55 56 56 57 56 55 55 53 53 52 51 50 45 44 49 54 54 53
43 44 44 46 49 54 53 54 54 53 53 55 55 55 55 55 56 55 56 57 57 56 55 54 53 52 45 44 44 53 50 47
45 46 46 46 47 48 49 54 54 53 53 53 55 56 56 55 55 55 55 55 56 57 56 56 52 43 40 40 40 41 39 39

GFSFLT1_sfc_dewp_096.txt.gz
Dewpoint
48 53 56 57 57 57 57 57 58 59 60 59 59 59 60 61 62 62 62 62 60 59 56 53 48 51 53 51 49 51 50 50
50 54 56 57 57 56 56 57 58 58 58 57 56 56 57 58 60 62 62 62 61 58 57 55 47 52 52 51 49 49 50 50
51 54 56 56 56 56 56 57 57 57 57 56 56 56 55 56 57 58 62 62 61 59 57 56 49 53 51 50 49 49 49 49
50 54 55 55 55 55 55 56 56 57 56 56 55 54 54 54 55 56 57 61 60 59 56 56 53 52 50 50 48 47 47 49
50 53 55 55 55 55 56 56 56 56 56 55 53 53 52 53 53 54 56 58 59 58 57 56 54 52 50 50 49 48 47 46
49 53 54 55 55 55 56 56 55 56 55 54 53 53 52 53 52 53 54 56 57 56 56 55 53 52 51 52 51 50 49 50
49 52 55 55 55 55 55 56 54 55 54 54 53 52 52 52 51 52 53 55 55 55 54 54 53 52 53 51 53 51 52 51
49 53 54 54 54 54 55 55 53 55 54 53 51 51 51 51 51 51 52 53 54 54 54 54 54 53 54 53 53 54 53 53
50 53 54 54 54 54 55 55 53 54 54 53 51 51 51 51 51 51 51 52 53 53 53 53 53 53 53 55 54 54 56 54
50 52 54 54 54 54 54 55 54 54 54 53 51 52 51 51 51 51 50 50 51 51 51 52 54 53 53 54 54 54 56 55
51 52 53 54 54 54 54 55 55 54 54 53 51 52 51 51 50 50 50 49 50 52 52 53 54 53 53 54 54 55 55 55
51 52 53 54 54 54 54 54 55 54 55 54 52 51 52 52 51 50 50 51 50 53 52 53 53 53 54 54 53 54 55 55
50 52 53 54 53 54 53 53 54 55 55 55 53 52 52 52 51 50 51 51 51 51 52 51 52 52 53 54 54 54 55 54
42 51 53 54 53 53 53 53 53 54 55 56 55 54 53 52 52 52 50 52 51 52 51 51 51 51 53 53 54 54 55 55
47 51 52 54 54 53 53 53 54 54 54 55 55 56 55 53 52 52 52 51 51 51 51 51 51 51 51 51 53 54 55 55
46 51 52 53 54 54 54 53 54 54 54 53 53 55 56 55 54 53 53 52 51 51 50 50 50 50 50 51 52 52 53 54
44 46 52 54 54 54 54 54 54 54 53 52 53 53 55 56 55 54 54 54 53 51 51 50 49 49 44 43 47 53 53 53
47 48 48 49 52 56 55 55 55 54 54 54 54 53 53 54 55 55 54 54 54 54 53 52 51 50 43 42 42 51 53 53
46 46 46 46 48 51 52 55 55 55 54 55 55 54 54 53 53 54 55 55 55 54 54 53 53 52 44 42 40 46 41 40

GFSFLT1_sfc_dewp_102.txt.gz
Dewpoint
29 27 32 51 55 58 58 58 58 57 57 58 59 60 61 61 61 61 62 62 60 60 59 58 58 57 56 55 53 54 52 52
35 43 36 54 56 57 58 58 57 57 58 58 58 59 59 60 61 62 62 62 60 59 57 56 57 55 54 53 53 53 53 53
35 52 53 55 56 57 58 57 57 58 58 59 57 57 57 59 61 62 62 62 60 59 57 56 55 55 53 52 52 52 52 52
31 50 54 54 55 56 57 57 57 57 57 57 55 55 55 56 57 59 61 61 60 59 57 56 54 55 53 52 52 51 51 52
31 43 53 54 55 56 56 56 57 57 56 55 54 53 52 54 55 57 58 60 60 59 57 55 54 53 52 50 50 51 51 50
34 37 52 54 55 55 56 56 56 56 55 55 54 53 53 54 54 55 56 57 60 59 57 56 52 52 52 49 50 50 51 51
40 38 52 54 55 55 55 55 55 55 54 54 53 52 53 53 53 54 55 56 58 60 58 56 53 54 53 49 52 51 52 51
41 41 52 54 54 54 54 54 54 54 54 54 52 51 52 52 52 53 54 55 56 58 58 56 53 55 54 52 52 52 52 51
42 42 47 54 54 54 55 54 54 54 54 53 52 52 52 52 53 53 54 54 55 57 57 54 54 55 54 54 53 53 52 52
42 42 47 53 54 54 54 53 54 54 53 52 52 52 52 52 52 53 54 54 55 55 56 55 55 55 54 54 52 52 53 52
43 42 51 53 54 54 54 53 53 53 53 52 52 52 52 52 52 52 53 54 55 55 55 55 55 55 54 54 54 54 53 53
42 45 52 53 53 53 54 53 53 53 53 52 51 51 51 52 51 52 52 54 54 54 54 54 54 54 54 54 53 53 53 53
44 47 51 53 53 53 53 53 53 54 53 52 51 51 51 51 51 51 51 51 53 54 54 54 54 54 54 53 53 53 52 52
47 48 52 53 53 53 52 53 53 54 53 52 51 51 51 51 50 51 51 50 51 52 53 53 53 53 54 53 53 52 52 52
46 48 53 53 53 52 53 53 54 54 52 52 51 51 51 51 50 50 50 50 51 51 52 52 53 53 53 53 52 52 52 51
44 46 47 53 53 53 54 55 55 54 53 52 52 51 52 51 51 50 50 50 50 51 51 51 52 52 52 52 52 52 51 51
44 44 45 46 48 54 54 54 55 55 53 54 53 53 52 51 51 51 50 51 51 50 50 51 51 51 45 44 49 52 52 51
42 42 42 43 45 46 52 55 55 55 55 55 54 54 53 52 52 52 52 51 51 51 51 50 50 51 43 43 43 51 51 51
40 39 38 39 41 43 47 53 55 55 54 55 55 54 54 55 53 52 52 52 52 51 51 51 51 50 43 42 41 48 48 48

GFSFLT1_sfc_dewp_105.txt.gz
Dewpoint
31 34 35 36 41 54 58 60 61 62 62 61 62 62 62 63 63 62 62 62 61 62 62 61 61 59 57 57 56 56 55 55
33 37 42 46 48 55 58 60 61 61 60 59 60 60 61 61 62 62 62 62 62 62 61 60 60 58 56 56 56 55 56 55
36 38 45 52 51 57 58 59 60 61 60 61 61 60 60 60 62 61 61 62 62 60 59 57 58 58 56 55 55 55 55 54
41 41 41 50 55 57 57 58 58 60 60 60 59 58 58 59 59 60 61 62 61 60 58 57 56 55 55 55 56 55 53 54
42 42 43 45 52 57 57 57 58 59 59 58 57 56 55 56 57 59 61 62 60 59 58 57 57 56 55 55 56 55 55 53
42 43 44 46 51 56 57 57 57 58 58 58 57 56 55 56 56 57 60 61 61 59 57 57 56 56 55 56 55 55 55 55
43 44 45 46 54 56 56 56 56 57 57 57 56 55 55 54 54 54 57 57 59 60 57 57 56 55 55 55 56 55 55 55
43 43 44 45 49 56 56 55 55 56 56 56 55 56 55 54 54 54 56 56 57 59 57 56 55 54 53 52 54 55 56 54
43 43 44 45 49 54 55 54 54 55 55 54 54 56 55 55 55 54 55 55 57 59 59 56 55 54 54 53 53 54 54 55
43 44 45 46 49 54 55 54 54 54 55 55 54 55 55 54 54 54 54 56 56 58 58 57 55 55 55 53 53 53 53 55
43 44 45 48 49 54 55 55 54 54 54 55 54 55 55 55 55 53 54 56 56 57 57 55 54 55 54 53 53 53 53 53
44 45 46 49 51 54 54 54 54 54 54 55 54 54 55 55 55 54 55 56 55 56 56 55 55 55 54 53 52 52 53 52
46 46 47 50 51 54 54 54 54 54 54 54 53 53 54 54 54 55 56 55 55 55 55 55 55 55 54 53 51 51 52 52
47 46 45 49 53 53 53 54 54 54 54 53 52 52 53 54 54 54 54 55 55 55 55 54 54 54 53 52 52 50 50 52
46 45 44 47 54 53 53 54 54 54 53 52 51 52 53 53 53 54 53 54 55 54 54 54 54 54 54 53 53 52 51 51
44 43 43 43 47 52 53 54 55 55 53 52 51 52 52 53 53 53 53 53 53 54 54 55 54 54 53 53 53 53 53 52
41 41 40 40 41 45 54 54 55 55 53 53 52 52 52 53 53 53 53 52 52 53 52 53 54 53 46 46 50 53 52 52
39 38 38 38 39 43 47 53 56 55 55 54 53 52 52 53 53 52 52 52 52 52 52 52 53 53 44 44 44 53 53 52
37 37 36 37 38 39 42 52 55 55 55 55 54 54 53 52 52 52 52 52 52 52 52 52 52 52 42 43 42 53 54 54

GFSFLT1_sfc_dewp_108.txt.gz
Dewpoint
29 30 34 33 35 41 47 54 60 62 65 65 63 64 64 64 64 63 64 64 63 64 64 64 62 59 58 58 58 58 57 57
25 35 41 43 45 46 46 52 59 60 63 62 61 62 62 62 64 63 63 63 64 63 63 63 61 58 57 58 57 56 57 58
30 39 44 46 49 50 51 54 58 60 61 61 61 62 62 62 63 64 63 63 63 62 62 62 60 58 58 58 57 56 56 57
36 41 44 48 48 51 51 54 57 60 61 61 61 62 62 62 62 62 62 62 62 62 62 61 60 59 57 57 57 55 54 56
40 42 44 46 49 51 53 54 56 58 60 60 60 59 58 59 60 61 62 62 62 62 62 61 59 59 57 56 57 56 55 55
42 43 44 45 48 54 55 55 56 58 59 60 60 59 58 59 59 59 60 62 62 62 60 58 57 57 57 57 57 56 56 55
41 42 43 44 48 52 56 56 56 58 59 60 60 60 58 57 57 58 58 60 61 61 59 58 57 57 56 57 57 56 56 56
40 40 42 44 47 50 54 55 55 57 59 59 60 60 59 58 57 57 56 57 59 60 58 58 57 56 57 56 57 56 56 56
39 40 42 44 46 49 52 54 54 56 57 58 58 59 58 57 56 55 55 56 58 60 58 58 57 57 57 57 56 57 57 56
40 42 45 46 48 51 53 54 54 55 57 57 57 58 58 56 57 56 56 57 57 59 58 57 57 56 55 55 55 56 57 56
43 43 46 46 47 51 53 55 54 55 56 56 56 58 57 57 56 55 56 57 57 57 59 57 56 55 55 55 54 54 55 56
43 44 45 44 47 48 53 54 54 55 55 55 57 57 57 56 56 55 56 57 56 56 58 58 56 55 55 54 53 54 54 55
42 43 44 43 44 43 51 54 54 55 55 56 56 56 56 55 55 55 56 56 56 56 56 56 55 55 55 53 52 53 53 53
43 43 42 42 42 42 53 55 55 55 55 55 56 55 55 54 55 55 55 56 55 56 56 56 55 55 54 53 53 53 53 53
43 43 43 41 41 41 45 55 55 55 54 54 54 55 54 55 55 55 55 55 55 55 54 55 55 55 54 53 52 51 52 52
40 40 41 40 39 39 41 55 55 54 54 54 54 54 53 54 54 54 54 54 55 55 55 55 56 55 54 54 52 52 51 51
38 38 38 38 37 38 40 53 55 54 54 53 53 53 52 53 54 54 54 54 53 55 55 55 55 54 46 46 50 52 51 50
36 36 37 37 37 38 39 45 55 54 54 54 53 53 52 53 53 53 53 53 54 54 53 55 55 54 44 45 44 54 53 52
35 35 36 35 36 37 39 45 53 52 51 52 53 53 53 53 52 52 53 53 53 53 54 54 53 54 43 44 43 54 53 53

GFSFLT1_sfc_dewp_111.txt.gz
Dewpoint
31 32 33 32 34 39 44 49 58 63 64 66 63 63 63 63 63 64 65 65 65 65 64 65 65 64 63 62 60 60 59 59
31 33 35 36 41 41 41 44 53 60 60 61 63 63 63 63 62 63 63 63 64 64 63 63 64 62 60 60 59 59 58 59
30 29 34 42 44 45 47 47 48 52 57 59 64 62 62 63 63 63 63 64 63 63 63 63 61 60 60 59 58 57 57 59
23 29 40 44 46 47 47 48 49 53 57 61 63 63 62 62 63 63 63 63 62 64 63 63 61 60 58 58 57 56 55 57
25 35 39 43 46 48 51 50 50 52 58 60 61 60 59 60 61 61 62 63 62 62 63 62 61 59 58 58 59 57 56 55
35 37 38 39 42 47 52 54 53 53 55 60 61 60 60 60 60 61 61 62 62 62 62 62 61 59 58 57 57 56 56 55
35 37 38 38 42 48 51 53 54 54 56 59 61 60 60 58 59 59 59 62 62 62 62 62 61 60 58 57 57 57 56 55
36 35 36 38 42 46 48 48 52 55 57 57 61 61 62 60 60 59 59 59 61 62 61 61 60 60 59 57 57 56 56 56
35 36 40 42 43 46 48 49 49 54 56 57 60 61 60 60 59 58 58 58 59 60 60 59 59 59 59 58 57 56 56 56
38 40 43 45 45 46 48 49 50 52 55 58 59 60 60 59 60 59 57 57 56 59 60 59 59 58 58 57 57 56 56 56
40 41 43 44 45 46 48 51 51 51 55 57 58 59 60 60 60 58 57 56 58 60 59 58 58 57 57 57 56 56 56 56
39 40 42 43 44 44 46 49 52 52 56 57 58 58 59 59 58 58 57 57 57 57 59 58 57 56 56 55 55 56 56 56
43 42 43 43 43 43 44 45 53 56 56 57 57 57 58 58 58 56 57 57 56 56 57 58 57 56 55 54 54 54 54 55
42 42 42 42 42 42 42 43 45 56 56 56 56 56 58 57 56 56 56 57 55 56 56 57 56 56 55 55 54 53 54 54
40 41 41 42 42 41 40 42 43 56 56 56 56 57 57 56 55 56 56 56 55 55 55 56 56 56 55 54 53 53 53 54
38 39 39 40 40 40 39 41 42 55 55 55 55 56 56 56 55 55 56 55 55 54 55 55 56 55 54 54 53 53 53 53
36 37 37 37 38 37 38 39 40 46 55 54 55 55 56 55 55 55 55 56 55 55 55 55 55 53 46 46 51 53 52 52
35 35 35 36 37 36 37 37 38 46 54 54 54 54 54 55 54 54 54 54 55 55 55 55 54 55 45 44 44 53 52 52
34 34 33 35 35 36 37 36 38 49 50 52 54 54 53 53 53 54 54 54 54 55 55 55 55 55 43 43 42 54 53 53

GFSFLT1_sfc_dewp_117.txt.gz
Dewpoint
28 30 31 29 30 38 58 62 64 65 66 66 65 65 65 65 66 66 65 65 66 65 65 64 64 62 61 62 61 60 61 61
28 29 30 31 38 44 56 64 65 66 65 65 64 64 64 63 64 65 66 65 66 66 64 64 65 63 62 62 62 61 60 60
28 28 37 37 42 46 46 58 65 66 65 64 64 64 64 63 63 64 64 64 65 65 65 63 63 62 62 62 60 59 59 61
32 38 39 42 44 44 45 48 51 60 64 63 63 62 62 61 61 62 63 63 64 64 64 63 62 61 60 60 60 59 57 59
31 40 42 42 44 48 48 51 51 52 53 59 61 61 59 60 61 61 62 64 64 64 64 63 61 60 60 60 60 59 57 56
32 39 41 42 45 48 50 51 51 52 53 55 61 60 61 60 60 60 60 63 64 64 63 62 61 60 59 59 59 58 58 57
38 39 42 46 46 47 47 47 48 50 53 54 61 60 60 59 60 60 61 61 63 62 63 62 61 60 59 59 59 58 58 57
38 43 44 44 45 45 45 46 46 47 49 51 54 61 60 59 60 60 60 60 61 62 62 62 60 59 59 59 58 58 57 57
43 43 42 43 44 45 45 44 44 45 48 50 51 53 61 60 60 61 60 60 61 62 62 61 60 59 59 59 58 58 57 57
41 42 42 43 44 45 44 44 44 44 45 47 48 52 58 60 60 60 61 61 61 62 62 61 60 60 59 58 58 57 57 56
42 42 43 43 44 44 44 43 42 42 43 44 46 49 52 60 60 59 61 61 61 61 61 61 60 59 59 58 57 57 56 56
40 40 41 41 41 41 41 41 41 41 41 42 44 46 51 59 59 59 60 60 60 61 60 59 59 58 58 58 57 57 56 56
39 39 39 39 39 39 39 39 39 40 40 41 43 46 56 58 58 59 60 59 60 59 58 58 58 58 58 57 56 56 55 55
37 37 36 37 37 37 37 38 38 38 39 39 42 45 58 58 58 59 59 59 59 59 58 58 58 57 56 56 56 56 55 55
35 35 34 35 36 36 36 36 37 38 37 38 41 44 56 58 58 58 58 58 58 58 58 58 57 56 56 56 56 55 56 55
34 34 34 33 34 34 35 36 36 37 37 38 40 44 55 57 58 58 58 57 56 57 58 57 56 56 55 55 55 54 54 54
33 33 32 32 32 33 34 35 35 36 36 37 39 47 55 56 57 57 57 56 55 56 56 56 55 55 46 46 52 54 53 53
32 32 31 32 32 33 34 34 34 35 35 36 37 40 56 56 56 56 56 56 55 54 55 55 55 55 44 45 45 53 53 53
32 32 31 31 32 32 34 33 33 32 33 34 35 37 45 56 56 56 56 56 55 54 54 55 53 47 43 43 43 53 52 52

GFSFLT1_sfc_dewp_120.txt.gz
Dewpoint
28 29 29 30 29 48 58 61 63 65 65 64 65 66 66 66 66 66 66 67 66 66 65 64 64 62 61 61 61 58 61 62
28 30 30 31 30 38 57 59 62 65 65 64 63 64 65 65 66 66 66 66 66 65 65 65 65 63 61 61 61 61 61 61
28 29 30 35 39 44 58 60 63 64 65 65 65 64 63 64 65 65 66 65 65 66 65 64 65 63 61 61 61 60 59 61
28 28 36 43 45 52 62 65 65 65 65 64 63 62 61 61 61 63 65 65 65 65 65 64 64 63 62 62 61 60 58 60
33 39 42 43 46 50 51 55 57 57 61 62 60 62 61 61 62 63 63 64 64 64 64 63 63 63 62 61 61 60 59 57
41 44 45 46 45 46 47 47 48 52 54 56 61 60 61 60 60 61 62 63 64 64 64 63 63 62 61 61 60 59 59 57
43 44 44 44 45 45 45 45 45 48 50 52 56 58 59 59 59 60 60 61 64 64 64 63 62 61 60 60 59 59 58 58
42 43 43 44 43 43 43 44 44 45 45 47 50 51 53 59 60 61 61 60 59 62 63 62 62 61 60 60 59 59 58 58
42 42 43 43 43 43 42 42 42 43 43 43 45 47 49 52 59 60 61 61 61 62 62 62 62 61 60 59 59 59 59 58
42 42 43 42 42 42 42 41 41 41 42 42 43 44 45 49 52 60 61 60 60 60 62 62 61 60 59 59 59 58 58 57
39 39 40 40 40 40 40 39 39 39 39 40 41 41 43 46 49 53 60 61 60 61 62 61 61 60 59 59 58 58 57 57
37 37 38 38 38 37 37 38 37 38 38 39 39 40 41 45 47 52 59 60 61 61 62 61 60 59 59 58 58 57 57 56
36 35 35 36 36 36 36 36 36 38 38 38 39 39 41 44 47 55 59 60 60 61 61 61 60 59 59 58 57 57 56 56
35 34 33 34 34 34 34 35 36 37 37 38 38 39 41 43 45 57 59 59 59 60 61 59 59 58 58 57 57 56 56 56
33 33 32 33 33 33 34 34 35 36 36 37 37 38 40 42 45 54 59 59 59 59 59 58 58 57 57 57 56 56 56 55
32 32 31 31 32 32 33 34 34 34 35 36 36 38 39 41 47 53 58 58 59 59 58 58 57 56 57 56 56 56 55 55
32 31 31 31 31 32 32 33 32 33 33 33 34 36 38 40 44 54 57 57 58 58 57 56 56 56 46 47 52 55 55 54
30 30 30 30 30 32 32 32 32 31 32 32 33 35 36 38 41 54 57 57 57 57 57 56 55 55 45 45 45 54 54 54
31 31 30 29 31 30 31 31 31 30 30 30 31 33 34 37 39 47 56 56 56 56 55 55 55 50 43 43 43 53 52 52

GFSFLT1_sfc_dewp_123.txt.gz
Dewpoint
27 28 30 38 54 59 61 64 65 66 66 65 64 64 65 65 66 66 65 66 66 65 64 63 63 62 62 61 61 60 61 61
28 28 29 29 34 51 59 61 64 65 65 64 63 64 65 65 66 66 66 66 65 65 65 63 64 63 61 61 60 61 61 62
28 28 29 30 30 34 55 59 61 64 64 64 64 65 64 65 65 66 66 66 66 65 64 64 64 64 62 61 62 60 61 61
28 29 30 31 34 39 50 56 59 63 64 64 62 62 61 61 62 64 65 65 66 65 65 64 63 63 62 61 62 61 59 60
29 42 45 48 49 55 56 57 59 62 63 62 61 61 60 62 63 64 64 64 65 65 64 64 64 64 63 62 63 62 60 59
44 45 45 45 45 46 47 49 50 52 56 59 60 60 61 61 60 61 62 64 64 64 65 64 64 64 63 63 62 61 60 59
43 43 43 43 43 43 44 45 45 47 50 50 51 51 54 58 59 60 60 61 63 64 64 64 64 63 62 62 61 61 60 59
42 42 42 42 42 42 42 43 43 45 45 46 47 49 50 50 56 59 60 59 60 62 63 63 63 62 62 61 61 60 59 58
41 41 41 41 40 40 40 40 40 41 42 42 43 45 46 49 53 57 60 61 61 62 62 62 62 62 60 60 60 60 59 58
39 40 40 39 38 39 39 38 39 39 40 41 41 42 42 44 46 49 52 60 61 61 61 62 62 61 61 60 60 59 59 58
37 37 37 36 36 37 37 37 37 37 38 39 39 40 41 42 44 47 49 52 60 60 60 61 61 61 61 60 59 59 58 58
34 35 35 35 35 35 35 35 36 36 37 37 38 38 39 40 42 45 47 50 53 60 60 60 61 60 60 59 59 58 58 57
33 33 33 33 33 34 34 35 35 36 36 36 37 38 39 40 41 43 46 49 54 58 60 60 61 60 59 59 58 58 57 56
33 32 32 32 32 33 33 34 34 34 34 35 36 37 38 38 40 42 45 47 56 57 60 60 60 60 59 59 58 57 57 56
32 32 32 31 32 32 32 33 33 33 33 33 35 36 36 37 39 41 44 48 56 59 60 60 60 59 59 58 58 57 56 56
32 31 30 31 31 31 31 33 33 32 32 32 33 34 35 36 38 40 43 48 56 59 59 59 59 59 58 57 57 56 56 55
31 30 30 30 30 30 31 32 32 32 31 31 32 32 33 35 37 39 41 45 55 58 59 58 58 58 48 47 53 55 55 55
31 29 29 28 28 29 30 32 31 31 30 30 31 31 32 33 35 37 40 43 54 57 58 58 57 57 45 46 46 55 55 54
29 28 27 29 28 29 30 31 29 29 28 28 29 30 30 32 34 36 38 41 50 57 57 57 56 55 44 44 44 54 54 54

GFSFLT1_sfc_dewp_126.txt.gz
Dewpoint
27 29 43 53 58 61 64 65 64 63 63 64 64 64 64 64 64 64 64 65 65 64 64 62 63 63 62 61 61 61 61 61
26 28 29 39 54 59 61 64 65 64 64 63 63 63 64 64 65 64 64 65 65 65 65 63 63 62 63 62 62 61 60 62
26 28 29 32 43 56 60 62 64 65 64 63 63 64 64 64 65 65 65 65 65 65 65 64 63 63 62 62 62 60 61 62
27 28 29 30 31 40 56 60 62 64 65 64 61 62 62 63 64 65 65 65 65 65 65 64 63 64 62 62 62 61 59 61
26 30 44 48 51 48 55 59 60 62 63 63 61 62 62 62 63 64 65 65 65 65 65 64 64 64 62 62 63 62 61 59
42 45 44 45 48 49 50 51 52 56 60 61 61 59 60 59 61 62 62 64 65 65 64 64 64 64 63 62 62 62 61 60
42 42 42 42 43 43 43 44 45 47 50 52 54 55 57 59 60 57 59 61 63 64 64 64 64 64 64 63 62 62 61 61
40 39 39 39 41 42 41 42 42 44 45 47 48 49 51 53 56 60 60 61 62 63 64 64 64 64 63 63 62 62 61 61
37 38 38 38 39 39 40 40 40 42 44 44 43 44 45 47 49 51 56 60 60 61 63 63 64 63 62 62 62 61 61 61
37 37 37 37 37 38 38 39 39 39 40 40 40 41 41 42 43 45 48 50 55 60 61 62 63 63 61 61 61 61 60 60
36 36 36 36 37 37 37 37 36 36 37 38 38 39 39 40 41 42 44 47 50 51 59 61 62 62 62 61 60 60 59 59
35 35 35 36 35 35 35 34 34 34 35 36 37 38 39 39 40 41 43 45 47 50 52 58 60 60 61 60 59 59 59 58
35 34 32 32 32 33 33 33 33 34 34 34 35 37 37 38 39 40 41 43 45 47 52 54 57 59 60 59 58 58 58 58
32 32 31 31 32 32 32 33 33 33 33 33 34 35 35 35 37 38 39 41 43 47 50 55 56 58 60 59 58 58 58 58
33 32 31 30 31 31 32 32 33 32 32 32 33 33 34 34 35 37 38 40 42 45 49 57 57 58 59 59 58 58 58 58
32 31 31 30 30 30 31 31 31 32 31 31 32 32 32 33 34 35 37 39 41 44 48 56 58 59 59 59 58 58 57 57
30 29 29 29 29 29 30 31 30 30 30 30 30 31 31 32 33 34 35 38 40 43 47 56 59 59 49 48 54 57 57 56
28 27 28 28 28 29 29 30 30 30 29 28 28 29 29 31 31 33 34 36 39 41 45 55 58 58 46 46 46 57 56 55
26 26 26 28 28 29 28 29 29 29 28 27 27 27 28 29 31 32 33 35 37 39 43 52 57 57 44 44 44 56 55 55

GFSFLT1_sfc_dewp_129.txt.gz
Dewpoint
18 20 25 31 49 62 62 62 64 65 65 65 64 64 64 64 63 64 65 64 65 65 66 66 67 66 66 66 65 65 64 64
22 23 28 34 46 61 64 63 63 63 63 63 63 63 63 64 64 66 66 65 64 65 66 66 66 65 64 64 65 64 63 63
24 23 26 34 39 58 63 64 63 62 61 62 64 64 64 63 65 65 65 66 66 66 66 66 65 64 64 64 64 63 63 63
24 23 25 32 41 48 60 63 64 64 63 64 64 65 65 65 64 63 64 65 66 66 66 65 65 65 64 64 64 64 62 62
23 23 22 33 41 46 57 62 64 65 66 65 64 62 61 63 63 65 65 66 66 66 66 66 66 65 65 64 64 65 64 61
21 20 23 48 51 49 56 61 63 65 66 65 65 65 65 65 66 64 65 66 65 65 64 64 65 65 66 65 64 64 65 64
39 44 45 45 46 49 52 52 50 53 58 63 65 64 64 64 64 63 64 64 61 60 60 61 64 65 65 65 65 64 64 64
38 39 40 41 42 43 45 46 45 45 46 47 49 52 55 59 62 62 62 61 62 60 61 62 64 65 65 65 64 64 64 64
36 36 37 38 40 39 40 40 40 42 43 43 44 45 47 48 50 51 57 60 62 62 63 63 64 65 65 64 64 64 64 64
36 37 37 37 37 37 38 38 38 39 40 41 42 43 43 44 45 46 48 49 49 53 61 63 63 64 64 63 63 62 63 63
36 35 36 36 36 37 36 36 36 36 37 38 39 40 41 42 43 44 45 46 47 48 51 53 60 62 63 63 62 62 62 62
33 34 35 35 35 35 34 34 34 35 35 36 38 37 38 39 40 41 42 44 45 46 48 50 52 57 61 62 61 61 60 61
34 33 32 33 33 34 34 33 33 34 35 36 36 36 37 37 38 39 41 42 43 44 46 48 50 53 56 60 60 60 59 59
32 32 32 31 32 32 32 33 34 33 33 34 35 35 35 36 37 38 39 40 41 43 44 47 49 52 54 57 59 59 59 59
31 30 31 32 31 30 32 31 33 33 33 32 33 34 33 34 35 36 37 38 39 41 43 45 49 50 55 56 56 59 58 59
29 29 29 29 29 29 30 31 31 31 31 30 31 32 32 32 34 34 35 37 38 40 42 44 47 50 55 57 57 58 58 58
28 28 28 28 28 29 29 30 30 30 29 29 30 30 30 32 32 33 34 35 36 38 40 42 45 48 49 48 53 58 58 58
27 26 27 28 28 29 29 29 30 29 29 28 28 28 29 30 30 31 32 34 35 36 38 41 44 47 48 47 46 59 58 58
25 26 27 27 28 28 29 28 28 27 27 27 27 27 28 29 29 30 32 33 34 36 37 39 41 45 45 45 44 57 58 58